| time (UTC) | temp F | wind direction | speed knots | gust knots | rain 1hr in | rain 24hr in | rain mn in | humidity % | barometer mb |
| 20260510153600 | 64 | 108 | 2.6 | 7.0 | 0.01 | 0.17 | 0.01 | 86 | 1012.6 |
| 20260510153500 | 64 | 111 | 2.6 | 7.0 | 0.01 | 0.17 | 0.01 | 86 | 1012.7 |
| 20260510153400 | 64 | 103 | 2.6 | 7.0 | 0.01 | 0.17 | 0.01 | 86 | 1012.7 |
| 20260510153331 | 64 | 108 | 2.6 | 7.0 | 0.01 | 0.17 | 0.01 | 86 | 1012.8 |
| 20260510153017 | 63 | 93 | 2.6 | 7.0 | 0.01 | 0.17 | 0.01 | 87 | 1012.8 |
| 20260510152801 | 63 | 106 | 2.6 | 7.0 | 0.01 | 0.17 | 0.01 | 88 | 1012.8 |
| 20260510152700 | 63 | 123 | 3.5 | 7.8 | 0.01 | 0.17 | 0.01 | 87 | 1012.9 |
| 20260510152601 | 63 | 122 | 3.5 | 7.8 | 0.01 | 0.17 | 0.01 | 87 | 1012.9 |
| 20260510152500 | 63 | 147 | 3.5 | 7.8 | 0.01 | 0.17 | 0.01 | 87 | 1012.9 |
| 20260510152400 | 63 | 90 | 3.5 | 7.8 | 0.01 | 0.17 | 0.01 | 88 | 1012.9 |
| 20260510152300 | 63 | 88 | 3.5 | 7.8 | 0.01 | 0.17 | 0.01 | 87 | 1012.9 |
| 20260510152229 | 63 | 96 | 3.5 | 7.8 | 0.01 | 0.17 | 0.01 | 87 | 1012.9 |
| 20260510151857 | 62 | 96 | 2.6 | 7.8 | 0.01 | 0.17 | 0.01 | 87 | 1012.9 |
| 20260510151758 | 62 | 114 | 2.6 | 7.8 | 0.01 | 0.17 | 0.01 | 88 | 1012.9 |
| 20260510151657 | 62 | 107 | 2.6 | 7.0 | 0.01 | 0.17 | 0.01 | 88 | 1012.8 |
| 20260510151557 | 62 | 108 | 2.6 | 7.0 | 0.00 | 0.16 | 0.00 | 89 | 1012.8 |
| 20260510151456 | 62 | 91 | 2.6 | 6.1 | 0.00 | 0.16 | 0.00 | 89 | 1012.8 |
| 20260510151355 | 62 | 99 | 2.6 | 6.1 | 0.00 | 0.16 | 0.00 | 89 | 1012.8 |
| 20260510151253 | 62 | 85 | 2.6 | 6.1 | 0.00 | 0.16 | 0.00 | 90 | 1012.8 |
| 20260510151207 | 62 | 82 | 2.6 | 6.1 | 0.00 | 0.16 | 0.00 | 90 | 1012.8 |
| 20260510151006 | 62 | 98 | 2.6 | 6.1 | 0.00 | 0.16 | 0.00 | 90 | 1012.9 |
| 20260510150818 | 61 | 92 | 2.6 | 6.1 | 0.00 | 0.16 | 0.00 | 90 | 1012.9 |
| 20260510150446 | 61 | 134 | 2.6 | 6.1 | 0.00 | 0.16 | 0.00 | 90 | 1012.8 |
| 20260510150346 | 61 | 116 | 1.7 | 6.1 | 0.00 | 0.16 | 0.00 | 91 | 1012.8 |
| 20260510150248 | 61 | 119 | 2.6 | 6.1 | 0.00 | 0.16 | 0.00 | 91 | 1012.8 |
| 20260510150200 | 61 | 137 | 1.7 | 6.1 | 0.00 | 0.16 | 0.00 | 91 | 1012.9 |
| 20260510145944 | 61 | 113 | 1.7 | 6.1 | 0.00 | 0.16 | 0.00 | 92 | 1012.8 |
| 20260510145845 | 61 | 76 | 1.7 | 5.2 | 0.00 | 0.16 | 0.00 | 93 | 1012.8 |
| 20260510145757 | 61 | 119 | 1.7 | 5.2 | 0.00 | 0.16 | 0.00 | 93 | 1012.9 |
| 20260510145543 | 60 | 113 | 1.7 | 5.2 | 0.00 | 0.16 | 0.00 | 93 | 1012.8 |
| 20260510145441 | 60 | 125 | 2.6 | 5.2 | 0.00 | 0.16 | 0.00 | 93 | 1012.8 |
| 20260510145343 | 60 | 122 | 2.6 | 5.2 | 0.00 | 0.16 | 0.00 | 93 | 1012.8 |
| 20260510145257 | 60 | 100 | 2.6 | 6.1 | 0.00 | 0.16 | 0.00 | 94 | 1012.9 |
| 20260510145038 | 60 | 103 | 2.6 | 6.1 | 0.00 | 0.16 | 0.00 | 94 | 1012.8 |
| 20260510144939 | 60 | 103 | 2.6 | 6.1 | 0.00 | 0.16 | 0.00 | 94 | 1012.9 |
| 20260510144854 | 60 | 90 | 2.6 | 6.1 | 0.00 | 0.16 | 0.00 | 95 | 1012.9 |
| 20260510144636 | 60 | 119 | 1.7 | 6.1 | 0.00 | 0.16 | 0.00 | 95 | 1012.9 |
| 20260510144537 | 60 | 115 | 1.7 | 6.1 | 0.00 | 0.16 | 0.00 | 95 | 1013.0 |
| 20260510144436 | 60 | 115 | 1.7 | 6.1 | 0.00 | 0.16 | 0.00 | 96 | 1013.0 |
| 20260510144353 | 59 | 130 | 1.7 | 6.1 | 0.00 | 0.16 | 0.00 | 96 | 1013.0 |
| 20260510144138 | 59 | 108 | 1.7 | 6.1 | 0.00 | 0.16 | 0.00 | 96 | 1013.0 |
| 20260510144037 | 59 | 115 | 1.7 | 6.1 | 0.00 | 0.16 | 0.00 | 96 | 1013.0 |
| 20260510143936 | 59 | 114 | 1.7 | 6.1 | 0.00 | 0.16 | 0.00 | 96 | 1013.0 |
| 20260510143837 | 59 | 122 | 1.7 | 6.1 | 0.00 | 0.16 | 0.00 | 96 | 1013.0 |
| 20260510143736 | 59 | 122 | 1.7 | 6.1 | 0.00 | 0.16 | 0.00 | 96 | 1013.0 |
| 20260510143651 | 58 | 122 | 1.7 | 6.1 | 0.00 | 0.16 | 0.00 | 96 | 1013.0 |
| 20260510143436 | 58 | 121 | 1.7 | 6.1 | 0.00 | 0.16 | 0.00 | 97 | 1013.0 |
| 20260510143349 | 58 | 116 | 1.7 | 6.1 | 0.00 | 0.16 | 0.00 | 97 | 1013.0 |
| 20260510143134 | 58 | 123 | 0.9 | 5.2 | 0.00 | 0.16 | 0.00 | 97 | 1013.0 |
| 20260510143031 | 58 | 120 | 1.7 | 5.2 | 0.00 | 0.16 | 0.00 | 97 | 1013.0 |
| 20260510142945 | 58 | 120 | 1.7 | 6.1 | 0.00 | 0.16 | 0.00 | 98 | 1013.0 |
| 20260510142726 | 58 | 121 | 1.7 | 6.1 | 0.00 | 0.16 | 0.00 | 98 | 1013.0 |
| 20260510142626 | 58 | 119 | 1.7 | 6.1 | 0.00 | 0.16 | 0.00 | 98 | 1013.0 |
| 20260510142527 | 58 | 123 | 1.7 | 6.1 | 0.00 | 0.16 | 0.00 | 98 | 1013.0 |
| 20260510142424 | 58 | 123 | 1.7 | 6.1 | 0.00 | 0.16 | 0.00 | 98 | 1012.9 |
| 20260510142325 | 58 | 123 | 1.7 | 6.1 | 0.00 | 0.16 | 0.00 | 98 | 1012.9 |
| 20260510142222 | 58 | 123 | 1.7 | 6.1 | 0.00 | 0.16 | 0.00 | 99 | 1012.9 |
| 20260510142122 | 58 | 124 | 1.7 | 6.1 | 0.00 | 0.16 | 0.00 | 99 | 1012.9 |
| 20260510142040 | 57 | 122 | 1.7 | 6.1 | 0.00 | 0.16 | 0.00 | 99 | 1012.9 |
| 20260510141824 | 57 | 112 | 0.9 | 5.2 | 0.00 | 0.16 | 0.00 | 99 | 1012.9 |
| 20260510141737 | 57 | 110 | 0.9 | 5.2 | 0.00 | 0.16 | 0.00 | 99 | 1012.9 |
| 20260510141522 | 57 | 109 | 0.9 | 3.5 | 0.00 | 0.16 | 0.00 | 98 | 1012.9 |
| 20260510141420 | 56 | 120 | 0.9 | 2.6 | 0.00 | 0.16 | 0.00 | 98 | 1012.9 |
| 20260510141319 | 56 | 120 | 0.9 | 2.6 | 0.00 | 0.16 | 0.00 | 98 | 1012.9 |
| 20260510141219 | 56 | 120 | 0.9 | 2.6 | 0.00 | 0.16 | 0.00 | 98 | 1012.9 |
| 20260510141120 | 56 | 120 | 0.9 | 2.6 | 0.00 | 0.16 | 0.00 | 98 | 1012.9 |
| 20260510141034 | 56 | 120 | 0.9 | 2.6 | 0.00 | 0.16 | 0.00 | 98 | 1012.9 |
| 20260510140814 | 56 | 120 | 0.0 | 2.6 | 0.00 | 0.16 | 0.00 | 99 | 1012.9 |
| 20260510140714 | 56 | 120 | 0.0 | 2.6 | 0.00 | 0.16 | 0.00 | 99 | 1012.9 |
| 20260510140615 | 56 | 120 | 0.0 | 2.6 | 0.00 | 0.16 | 0.00 | 99 | 1012.9 |
| 20260510140514 | 56 | 121 | 0.0 | 2.6 | 0.00 | 0.16 | 0.00 | 99 | 1012.9 |
| 20260510140427 | 56 | 121 | 0.0 | 2.6 | 0.00 | 0.16 | 0.00 | 99 | 1012.9 |
| 20260510140226 | 56 | 121 | 0.0 | 2.6 | 0.00 | 0.16 | 0.00 | 99 | 1012.9 |
| 20260510140010 | 56 | 121 | 0.0 | 2.6 | 0.00 | 0.16 | 0.00 | 99 | 1012.9 |
| 20260510135908 | 56 | 121 | 0.0 | 2.6 | 0.00 | 0.16 | 0.00 | 99 | 1012.9 |
| 20260510135811 | 56 | 121 | 0.0 | 2.6 | 0.00 | 0.16 | 0.00 | 99 | 1012.9 |
| 20260510135709 | 56 | 121 | 0.0 | 2.6 | 0.00 | 0.16 | 0.00 | 99 | 1012.8 |
| 20260510135610 | 56 | 121 | 0.0 | 2.6 | 0.00 | 0.16 | 0.00 | 99 | 1012.9 |
| 20260510135523 | 56 | 121 | 0.0 | 2.6 | 0.00 | 0.16 | 0.00 | 99 | 1012.8 |
| 20260510135306 | 55 | 127 | 0.0 | 0.0 | 0.00 | 0.16 | 0.00 | 99 | 1012.8 |
| 20260510135235 | 55 | 127 | 0.0 | 0.0 | 0.00 | 0.16 | 0.00 | 99 | 1012.7 |
| 20260510134903 | 55 | 127 | 0.0 | 0.0 | 0.00 | 0.16 | 0.00 | 99 | 1012.7 |
| 20260510134804 | 55 | 127 | 0.0 | 0.0 | 0.00 | 0.16 | 0.00 | 99 | 1012.7 |
| 20260510134702 | 55 | 127 | 0.0 | 0.0 | 0.00 | 0.16 | 0.00 | 99 | 1012.7 |
| 20260510134600 | 55 | 127 | 0.0 | 0.0 | 0.00 | 0.16 | 0.00 | 99 | 1012.8 |
| 20260510134458 | 55 | 127 | 0.0 | 0.0 | 0.00 | 0.16 | 0.00 | 99 | 1012.7 |
| 20260510134358 | 55 | 127 | 0.0 | 0.0 | 0.00 | 0.16 | 0.00 | 99 | 1012.8 |
| 20260510134259 | 55 | 127 | 0.0 | 0.9 | 0.00 | 0.16 | 0.00 | 99 | 1012.8 |
| 20260510134212 | 55 | 127 | 0.0 | 0.9 | 0.00 | 0.16 | 0.00 | 98 | 1012.8 |
| 20260510134011 | 55 | 127 | 0.0 | 0.9 | 0.00 | 0.16 | 0.00 | 99 | 1012.8 |
| 20260510133757 | 55 | 135 | 0.0 | 0.9 | 0.00 | 0.16 | 0.00 | 99 | 1012.9 |
| 20260510133657 | 55 | 135 | 0.0 | 0.9 | 0.00 | 0.16 | 0.00 | 99 | 1012.9 |
| 20260510133558 | 55 | 135 | 0.0 | 0.9 | 0.00 | 0.16 | 0.00 | 99 | 1012.9 |
| 20260510133454 | 54 | 128 | 0.0 | 0.9 | 0.00 | 0.16 | 0.00 | 99 | 1012.9 |
| 20260510133410 | 54 | 128 | 0.0 | 0.9 | 0.00 | 0.16 | 0.00 | 99 | 1012.9 |
| 20260510133152 | 54 | 128 | 0.0 | 0.0 | 0.00 | 0.16 | 0.00 | 99 | 1012.8 |
| 20260510133054 | 54 | 128 | 0.0 | 0.0 | 0.00 | 0.16 | 0.00 | 99 | 1012.9 |
| 20260510132953 | 54 | 128 | 0.0 | 0.0 | 0.00 | 0.16 | 0.00 | 98 | 1012.9 |
| 20260510132852 | 54 | 128 | 0.0 | 0.0 | 0.00 | 0.16 | 0.00 | 99 | 1012.9 |
| 20260510132753 | 54 | 128 | 0.0 | 0.0 | 0.00 | 0.16 | 0.00 | 99 | 1012.9 |
| 20260510132654 | 54 | 111 | 0.0 | 0.0 | 0.00 | 0.16 | 0.00 | 99 | 1012.9 |
| 20260510132553 | 54 | 111 | 0.0 | 0.0 | 0.00 | 0.16 | 0.00 | 99 | 1012.9 |
| 20260510132450 | 54 | 111 | 0.0 | 0.0 | 0.00 | 0.16 | 0.00 | 99 | 1012.8 |
| 20260510132351 | 54 | 111 | 0.0 | 0.0 | 0.00 | 0.16 | 0.00 | 99 | 1012.8 |
| 20260510132248 | 54 | 111 | 0.0 | 0.0 | 0.00 | 0.16 | 0.00 | 99 | 1012.9 |
| 20260510132150 | 54 | 111 | 0.0 | 0.0 | 0.00 | 0.16 | 0.00 | 99 | 1012.9 |
| 20260510132049 | 54 | 111 | 0.0 | 0.0 | 0.00 | 0.16 | 0.00 | 99 | 1012.9 |
| 20260510132003 | 54 | 111 | 0.0 | 0.0 | 0.00 | 0.16 | 0.00 | 99 | 1013.0 |
| 20260510131744 | 54 | 111 | 0.0 | 0.0 | 0.00 | 0.16 | 0.00 | 99 | 1012.9 |
| 20260510131645 | 54 | 111 | 0.0 | 0.0 | 0.00 | 0.16 | 0.00 | 99 | 1012.9 |
| 20260510131544 | 54 | 111 | 0.0 | 0.0 | 0.00 | 0.16 | 0.00 | 99 | 1012.9 |
| 20260510131443 | 54 | 111 | 0.0 | 0.0 | 0.00 | 0.16 | 0.00 | 99 | 1012.9 |
| 20260510131344 | 54 | 111 | 0.0 | 0.0 | 0.00 | 0.16 | 0.00 | 99 | 1012.9 |
| 20260510131246 | 54 | 111 | 0.0 | 0.0 | 0.00 | 0.16 | 0.00 | 99 | 1012.9 |
| 20260510131140 | 54 | 111 | 0.0 | 0.0 | 0.00 | 0.16 | 0.00 | 99 | 1012.9 |
| 20260510131040 | 54 | 111 | 0.0 | 0.0 | 0.00 | 0.16 | 0.00 | 99 | 1012.9 |
| 20260510130939 | 54 | 111 | 0.0 | 0.0 | 0.00 | 0.16 | 0.00 | 99 | 1012.9 |
| 20260510130838 | 53 | 111 | 0.0 | 0.0 | 0.00 | 0.16 | 0.00 | 99 | 1012.9 |
| 20260510130737 | 53 | 111 | 0.0 | 0.0 | 0.00 | 0.16 | 0.00 | 99 | 1012.9 |
| 20260510130652 | 53 | 111 | 0.0 | 0.0 | 0.00 | 0.16 | 0.00 | 99 | 1012.9 |
| 20260510130434 | 53 | 111 | 0.0 | 0.0 | 0.00 | 0.16 | 0.00 | 99 | 1012.8 |
| 20260510130335 | 53 | 111 | 0.0 | 0.0 | 0.00 | 0.16 | 0.00 | 99 | 1012.8 |
| 20260510130232 | 53 | 111 | 0.0 | 0.0 | 0.00 | 0.16 | 0.00 | 99 | 1012.7 |
| 20260510130134 | 53 | 111 | 0.0 | 0.0 | 0.00 | 0.16 | 0.00 | 99 | 1012.7 |
| 20260510130031 | 53 | 111 | 0.0 | 0.0 | 0.00 | 0.16 | 0.00 | 99 | 1012.7 |
| 20260510125945 | 53 | 111 | 0.0 | 0.0 | 0.00 | 0.16 | 0.00 | 99 | 1012.7 |
| 20260510125729 | 53 | 111 | 0.0 | 0.0 | 0.00 | 0.16 | 0.00 | 99 | 1012.7 |
| 20260510125643 | 53 | 111 | 0.0 | 0.0 | 0.00 | 0.16 | 0.00 | 99 | 1012.7 |
| 20260510125427 | 53 | 111 | 0.0 | 0.0 | 0.00 | 0.16 | 0.00 | 99 | 1012.7 |
| 20260510125326 | 53 | 111 | 0.0 | 0.0 | 0.00 | 0.16 | 0.00 | 99 | 1012.6 |
| 20260510125224 | 53 | 111 | 0.0 | 0.0 | 0.00 | 0.16 | 0.00 | 99 | 1012.6 |
| 20260510125124 | 53 | 111 | 0.0 | 0.0 | 0.00 | 0.16 | 0.00 | 99 | 1012.6 |
| 20260510125023 | 53 | 111 | 0.0 | 0.0 | 0.00 | 0.16 | 0.00 | 99 | 1012.5 |
| 20260510124923 | 53 | 111 | 0.0 | 0.0 | 0.00 | 0.16 | 0.00 | 99 | 1012.5 |
| 20260510124822 | 53 | 111 | 0.0 | 0.0 | 0.00 | 0.16 | 0.00 | 99 | 1012.4 |
| 20260510124721 | 53 | 111 | 0.0 | 0.0 | 0.00 | 0.16 | 0.00 | 99 | 1012.5 |
| 20260510124620 | 53 | 111 | 0.0 | 0.0 | 0.00 | 0.16 | 0.00 | 99 | 1012.4 |
| 20260510124519 | 53 | 111 | 0.0 | 0.0 | 0.00 | 0.16 | 0.00 | 99 | 1012.4 |
| 20260510124435 | 53 | 111 | 0.0 | 0.0 | 0.00 | 0.16 | 0.00 | 99 | 1012.4 |
| 20260510124219 | 52 | 111 | 0.0 | 0.0 | 0.00 | 0.16 | 0.00 | 99 | 1012.5 |
| 20260510124116 | 52 | 111 | 0.0 | 0.0 | 0.00 | 0.16 | 0.00 | 99 | 1012.4 |
| 20260510124016 | 52 | 111 | 0.0 | 0.0 | 0.00 | 0.16 | 0.00 | 99 | 1012.4 |
| 20260510123915 | 52 | 111 | 0.0 | 0.0 | 0.00 | 0.16 | 0.00 | 99 | 1012.3 |
| 20260510123815 | 52 | 111 | 0.0 | 0.0 | 0.00 | 0.16 | 0.00 | 99 | 1012.3 |
| 20260510123712 | 52 | 111 | 0.0 | 0.0 | 0.00 | 0.16 | 0.00 | 99 | 1012.3 |
| 20260510123613 | 52 | 111 | 0.0 | 0.0 | 0.00 | 0.16 | 0.00 | 99 | 1012.3 |
| 20260510123512 | 52 | 111 | 0.0 | 0.0 | 0.00 | 0.16 | 0.00 | 99 | 1012.4 |
| 20260510123411 | 52 | 111 | 0.0 | 0.0 | 0.00 | 0.16 | 0.00 | 99 | 1012.4 |
| 20260510123308 | 52 | 111 | 0.0 | 0.0 | 0.00 | 0.16 | 0.00 | 99 | 1012.4 |
| 20260510123210 | 52 | 111 | 0.0 | 0.0 | 0.00 | 0.16 | 0.00 | 99 | 1012.3 |
| 20260510123108 | 52 | 111 | 0.0 | 0.0 | 0.00 | 0.16 | 0.00 | 98 | 1012.4 |
| 20260510123010 | 52 | 111 | 0.0 | 0.0 | 0.00 | 0.16 | 0.00 | 98 | 1012.4 |
| 20260510122906 | 52 | 111 | 0.0 | 0.0 | 0.00 | 0.16 | 0.00 | 98 | 1012.3 |
| 20260510122806 | 52 | 111 | 0.0 | 0.0 | 0.00 | 0.16 | 0.00 | 98 | 1012.4 |
| 20260510122719 | 52 | 111 | 0.0 | 0.0 | 0.00 | 0.16 | 0.00 | 98 | 1012.4 |
| 20260510122505 | 52 | 111 | 0.0 | 0.0 | 0.00 | 0.16 | 0.00 | 98 | 1012.4 |
| 20260510122432 | 52 | 111 | 0.0 | 0.0 | 0.00 | 0.16 | 0.00 | 98 | 1012.4 |
| 20260510122103 | 52 | 111 | 0.0 | 0.0 | 0.00 | 0.16 | 0.00 | 98 | 1012.4 |
| 20260510122015 | 52 | 111 | 0.0 | 0.0 | 0.00 | 0.16 | 0.00 | 98 | 1012.3 |
| 20260510121800 | 51 | 111 | 0.0 | 0.0 | 0.00 | 0.16 | 0.00 | 98 | 1012.4 |
| 20260510121657 | 52 | 111 | 0.0 | 0.0 | 0.00 | 0.16 | 0.00 | 98 | 1012.3 |
| 20260510121558 | 51 | 111 | 0.0 | 0.0 | 0.00 | 0.16 | 0.00 | 98 | 1012.3 |
| 20260510121457 | 51 | 111 | 0.0 | 0.0 | 0.00 | 0.16 | 0.00 | 98 | 1012.3 |
| 20260510121355 | 51 | 111 | 0.0 | 0.0 | 0.00 | 0.16 | 0.00 | 98 | 1012.3 |
| 20260510121255 | 51 | 111 | 0.0 | 0.0 | 0.00 | 0.16 | 0.00 | 98 | 1012.4 |
| 20260510121153 | 51 | 111 | 0.0 | 0.0 | 0.00 | 0.16 | 0.00 | 98 | 1012.4 |
| 20260510121108 | 51 | 111 | 0.0 | 0.0 | 0.00 | 0.16 | 0.00 | 98 | 1012.4 |
| 20260510120851 | 51 | 111 | 0.0 | 0.0 | 0.00 | 0.16 | 0.00 | 98 | 1012.4 |
| 20260510120752 | 51 | 111 | 0.0 | 0.0 | 0.00 | 0.16 | 0.00 | 98 | 1012.4 |
| 20260510120705 | 51 | 111 | 0.0 | 0.0 | 0.00 | 0.16 | 0.00 | 98 | 1012.4 |
| 20260510120449 | 51 | 111 | 0.0 | 0.0 | 0.00 | 0.16 | 0.00 | 98 | 1012.4 |
| 20260510120401 | 51 | 111 | 0.0 | 0.0 | 0.00 | 0.16 | 0.00 | 98 | 1012.4 |
| 20260510120145 | 51 | 111 | 0.0 | 0.0 | 0.00 | 0.16 | 0.00 | 98 | 1012.4 |
| 20260510120045 | 51 | 111 | 0.0 | 0.0 | 0.00 | 0.16 | 0.00 | 98 | 1012.4 |
| 20260510115946 | 51 | 111 | 0.0 | 0.0 | 0.00 | 0.16 | 0.00 | 98 | 1012.3 |
| 20260510115843 | 51 | 111 | 0.0 | 0.0 | 0.00 | 0.16 | 0.00 | 98 | 1012.2 |
| 20260510115744 | 51 | 111 | 0.0 | 0.0 | 0.00 | 0.16 | 0.00 | 98 | 1012.2 |
| 20260510115642 | 51 | 111 | 0.0 | 0.0 | 0.00 | 0.16 | 0.00 | 98 | 1012.1 |
| 20260510115613 | 51 | 111 | 0.0 | 0.0 | 0.00 | 0.16 | 0.00 | 98 | 1012.1 |
| 20260510115241 | 51 | 111 | 0.0 | 0.0 | 0.00 | 0.16 | 0.00 | 98 | 1012.0 |
| 20260510115138 | 51 | 111 | 0.0 | 0.0 | 0.00 | 0.16 | 0.00 | 98 | 1012.0 |
| 20260510115037 | 51 | 111 | 0.0 | 0.0 | 0.00 | 0.16 | 0.00 | 98 | 1011.9 |
| 20260510114938 | 51 | 111 | 0.0 | 0.0 | 0.00 | 0.16 | 0.00 | 98 | 1011.9 |
| 20260510114835 | 51 | 111 | 0.0 | 0.0 | 0.00 | 0.16 | 0.00 | 98 | 1011.9 |
| 20260510114737 | 51 | 111 | 0.0 | 0.0 | 0.00 | 0.16 | 0.00 | 98 | 1011.9 |
| 20260510114633 | 51 | 111 | 0.0 | 0.0 | 0.00 | 0.16 | 0.00 | 98 | 1011.9 |
| 20260510114550 | 51 | 111 | 0.0 | 0.0 | 0.00 | 0.16 | 0.00 | 98 | 1011.9 |
| 20260510114332 | 51 | 111 | 0.0 | 0.0 | 0.00 | 0.16 | 0.00 | 98 | 1011.9 |
| 20260510114229 | 51 | 111 | 0.0 | 0.0 | 0.00 | 0.16 | 0.00 | 98 | 1011.9 |
| 20260510114146 | 51 | 111 | 0.0 | 0.0 | 0.00 | 0.16 | 0.00 | 98 | 1011.9 |
| 20260510113929 | 51 | 111 | 0.0 | 0.0 | 0.00 | 0.16 | 0.00 | 98 | 1011.9 |
| 20260510113828 | 51 | 111 | 0.0 | 0.0 | 0.00 | 0.16 | 0.00 | 98 | 1011.9 |
| 20260510113730 | 51 | 111 | 0.0 | 0.0 | 0.00 | 0.16 | 0.00 | 98 | 1011.9 |
| 20260510113625 | 51 | 111 | 0.0 | 0.0 | 0.00 | 0.16 | 0.00 | 98 | 1011.9 |
| 20260510113527 | 51 | 111 | 0.0 | 0.0 | 0.00 | 0.16 | 0.00 | 98 | 1011.9 |
| 20260510113502 | 51 | 111 | 0.0 | 0.0 | 0.00 | 0.16 | 0.00 | 98 | 1012.0 |
| 20260510113225 | 51 | 111 | 0.0 | 0.0 | 0.00 | 0.16 | 0.00 | 98 | 1012.0 |
| 20260510113122 | 51 | 111 | 0.0 | 0.0 | 0.00 | 0.16 | 0.00 | 98 | 1012.0 |
| 20260510113022 | 51 | 111 | 0.0 | 0.0 | 0.00 | 0.16 | 0.00 | 98 | 1012.0 |
| 20260510112922 | 51 | 111 | 0.0 | 0.0 | 0.00 | 0.16 | 0.00 | 98 | 1011.9 |
| 20260510112819 | 51 | 111 | 0.0 | 0.0 | 0.00 | 0.16 | 0.00 | 98 | 1012.0 |
| 20260510112722 | 51 | 111 | 0.0 | 0.0 | 0.00 | 0.16 | 0.00 | 98 | 1012.0 |
| 20260510112618 | 51 | 111 | 0.0 | 0.0 | 0.00 | 0.16 | 0.00 | 98 | 1012.0 |
| 20260510112518 | 51 | 111 | 0.0 | 0.0 | 0.00 | 0.16 | 0.00 | 98 | 1012.0 |
| 20260510112429 | 51 | 111 | 0.0 | 0.0 | 0.00 | 0.16 | 0.00 | 98 | 1012.0 |
| 20260510112415 | 51 | 111 | 0.0 | 0.0 | 0.00 | 0.16 | 0.00 | 98 | 1012.0 |
| 20260510111812 | 51 | 111 | 0.0 | 0.0 | 0.00 | 0.16 | 0.00 | 98 | 1012.0 |
| 20260510111711 | 51 | 111 | 0.0 | 0.0 | 0.00 | 0.16 | 0.00 | 98 | 1012.0 |
| 20260510111610 | 51 | 111 | 0.0 | 0.0 | 0.00 | 0.16 | 0.00 | 98 | 1012.0 |
| 20260510111509 | 51 | 111 | 0.0 | 0.0 | 0.00 | 0.16 | 0.00 | 98 | 1012.0 |
| 20260510111410 | 51 | 111 | 0.0 | 0.0 | 0.00 | 0.16 | 0.00 | 98 | 1011.9 |
| 20260510111310 | 51 | 111 | 0.0 | 0.0 | 0.00 | 0.16 | 0.00 | 98 | 1012.0 |
| 20260510111206 | 51 | 111 | 0.0 | 0.0 | 0.00 | 0.16 | 0.00 | 98 | 1012.0 |
| 20260510111105 | 51 | 111 | 0.0 | 0.0 | 0.00 | 0.16 | 0.00 | 98 | 1011.9 |
| 20260510111005 | 51 | 111 | 0.0 | 0.0 | 0.00 | 0.16 | 0.00 | 98 | 1011.9 |
| 20260510110905 | 51 | 111 | 0.0 | 0.0 | 0.00 | 0.16 | 0.00 | 98 | 1011.8 |
| 20260510110804 | 51 | 111 | 0.0 | 0.0 | 0.00 | 0.16 | 0.00 | 98 | 1011.8 |
| 20260510110704 | 51 | 111 | 0.0 | 0.0 | 0.00 | 0.16 | 0.00 | 98 | 1011.8 |
| 20260510110603 | 51 | 111 | 0.0 | 0.0 | 0.00 | 0.16 | 0.00 | 98 | 1011.8 |
| 20260510110504 | 51 | 111 | 0.0 | 0.0 | 0.00 | 0.16 | 0.00 | 98 | 1011.8 |
| 20260510110403 | 51 | 111 | 0.0 | 0.0 | 0.00 | 0.16 | 0.00 | 98 | 1011.7 |
| 20260510110305 | 51 | 111 | 0.0 | 0.0 | 0.00 | 0.16 | 0.00 | 98 | 1011.7 |
| 20260510110202 | 51 | 111 | 0.0 | 0.0 | 0.00 | 0.16 | 0.00 | 98 | 1011.7 |
| 20260510110003 | 50 | 111 | 0.0 | 0.0 | 0.00 | 0.16 | 0.00 | 98 | 1011.7 |
| 20260510105915 | 50 | 111 | 0.0 | 0.0 | 0.00 | 0.16 | 0.00 | 98 | 1011.7 |
| 20260510105700 | 50 | 111 | 0.0 | 0.0 | 0.00 | 0.16 | 0.00 | 98 | 1011.7 |
| 20260510105600 | 50 | 111 | 0.0 | 0.0 | 0.00 | 0.16 | 0.00 | 98 | 1011.7 |
| 20260510105459 | 50 | 111 | 0.0 | 0.0 | 0.00 | 0.16 | 0.00 | 98 | 1011.7 |
| 20260510105359 | 50 | 111 | 0.0 | 0.0 | 0.00 | 0.16 | 0.00 | 98 | 1011.7 |
| 20260510105330 | 50 | 111 | 0.0 | 0.0 | 0.00 | 0.16 | 0.00 | 98 | 1011.7 |
| 20260510105000 | 50 | 111 | 0.0 | 0.0 | 0.00 | 0.16 | 0.00 | 98 | 1011.6 |
| 20260510104901 | 50 | 111 | 0.0 | 0.0 | 0.00 | 0.16 | 0.00 | 98 | 1011.6 |
| 20260510104813 | 50 | 111 | 0.0 | 0.0 | 0.00 | 0.16 | 0.00 | 98 | 1011.6 |
| 20260510104557 | 50 | 111 | 0.0 | 0.0 | 0.00 | 0.16 | 0.00 | 98 | 1011.6 |
| 20260510104500 | 50 | 111 | 0.0 | 0.0 | 0.00 | 0.16 | 0.00 | 98 | 1011.5 |
| 20260510104355 | 50 | 111 | 0.0 | 0.0 | 0.00 | 0.16 | 0.00 | 98 | 1011.6 |
| 20260510104257 | 50 | 111 | 0.0 | 0.0 | 0.00 | 0.16 | 0.00 | 98 | 1011.5 |
| 20260510104155 | 50 | 111 | 0.0 | 0.0 | 0.00 | 0.16 | 0.00 | 98 | 1011.6 |
| 20260510104055 | 50 | 111 | 0.0 | 0.0 | 0.00 | 0.16 | 0.00 | 98 | 1011.6 |
| 20260510103954 | 50 | 111 | 0.0 | 0.0 | 0.00 | 0.16 | 0.00 | 98 | 1011.6 |
| 20260510103854 | 50 | 111 | 0.0 | 0.0 | 0.00 | 0.16 | 0.00 | 98 | 1011.5 |
| 20260510103752 | 50 | 111 | 0.0 | 0.0 | 0.00 | 0.16 | 0.00 | 98 | 1011.5 |
| 20260510103650 | 50 | 111 | 0.0 | 0.0 | 0.00 | 0.16 | 0.00 | 98 | 1011.5 |
| 20260510103551 | 50 | 111 | 0.0 | 0.0 | 0.00 | 0.16 | 0.00 | 98 | 1011.5 |
| 20260510103451 | 50 | 111 | 0.0 | 0.0 | 0.00 | 0.16 | 0.00 | 98 | 1011.4 |
| 20260510103403 | 50 | 111 | 0.0 | 0.0 | 0.00 | 0.16 | 0.00 | 98 | 1011.4 |
| 20260510103200 | 50 | 111 | 0.0 | 0.0 | 0.00 | 0.16 | 0.00 | 98 | 1011.4 |
| 20260510102944 | 50 | 111 | 0.0 | 0.0 | 0.00 | 0.16 | 0.00 | 98 | 1011.5 |
| 20260510102844 | 50 | 111 | 0.0 | 0.0 | 0.00 | 0.16 | 0.00 | 98 | 1011.5 |
| 20260510102744 | 50 | 111 | 0.0 | 0.0 | 0.00 | 0.16 | 0.00 | 98 | 1011.5 |
| 20260510102643 | 50 | 111 | 0.0 | 0.0 | 0.00 | 0.16 | 0.00 | 98 | 1011.5 |
| 20260510102557 | 50 | 111 | 0.0 | 0.0 | 0.00 | 0.16 | 0.00 | 98 | 1011.5 |
| 20260510102339 | 50 | 111 | 0.0 | 0.0 | 0.00 | 0.16 | 0.00 | 98 | 1011.5 |
| 20260510102240 | 50 | 111 | 0.0 | 0.0 | 0.00 | 0.16 | 0.00 | 98 | 1011.4 |
| 20260510102138 | 50 | 111 | 0.0 | 0.0 | 0.00 | 0.16 | 0.00 | 98 | 1011.5 |
| 20260510102038 | 50 | 111 | 0.0 | 0.0 | 0.00 | 0.16 | 0.00 | 98 | 1011.5 |
| 20260510101951 | 50 | 111 | 0.0 | 0.0 | 0.00 | 0.16 | 0.00 | 98 | 1011.5 |
| 20260510101735 | 50 | 111 | 0.0 | 0.0 | 0.00 | 0.16 | 0.00 | 98 | 1011.5 |
| 20260510101636 | 50 | 111 | 0.0 | 0.0 | 0.00 | 0.16 | 0.00 | 98 | 1011.4 |
| 20260510101535 | 50 | 111 | 0.0 | 0.0 | 0.00 | 0.16 | 0.00 | 98 | 1011.5 |
| 20260510101433 | 50 | 111 | 0.0 | 0.0 | 0.00 | 0.16 | 0.00 | 98 | 1011.5 |
| 20260510101347 | 50 | 111 | 0.0 | 0.0 | 0.00 | 0.16 | 0.00 | 98 | 1011.4 |
| 20260510101130 | 50 | 111 | 0.0 | 0.0 | 0.00 | 0.16 | 0.00 | 98 | 1011.3 |
| 20260510101030 | 50 | 111 | 0.0 | 0.0 | 0.00 | 0.16 | 0.00 | 98 | 1011.3 |
| 20260510100930 | 50 | 111 | 0.0 | 0.0 | 0.00 | 0.16 | 0.00 | 98 | 1011.3 |
| 20260510100828 | 50 | 111 | 0.0 | 0.0 | 0.00 | 0.16 | 0.00 | 98 | 1011.3 |
| 20260510100727 | 50 | 111 | 0.0 | 0.0 | 0.00 | 0.16 | 0.00 | 98 | 1011.3 |
| 20260510100642 | 50 | 111 | 0.0 | 0.0 | 0.00 | 0.16 | 0.00 | 98 | 1011.3 |
| 20260510100426 | 50 | 111 | 0.0 | 0.9 | 0.00 | 0.16 | 0.00 | 98 | 1011.3 |
| 20260510100411 | 50 | 111 | 0.0 | 0.9 | 0.00 | 0.16 | 0.00 | 98 | 1011.4 |
| 20260510095937 | 50 | 107 | 0.0 | 0.9 | 0.00 | 0.16 | 0.00 | 98 | 1011.4 |
| 20260510095719 | 50 | 107 | 0.0 | 0.9 | 0.00 | 0.16 | 0.00 | 98 | 1011.4 |
| 20260510095618 | 50 | 107 | 0.0 | 0.9 | 0.00 | 0.16 | 0.00 | 98 | 1011.4 |
| 20260510095519 | 50 | 107 | 0.0 | 0.9 | 0.00 | 0.16 | 0.00 | 98 | 1011.5 |
| 20260510095419 | 50 | 107 | 0.0 | 0.0 | 0.00 | 0.16 | 0.00 | 98 | 1011.5 |
| 20260510095315 | 50 | 107 | 0.0 | 0.0 | 0.00 | 0.16 | 0.00 | 98 | 1011.5 |
| 20260510095216 | 50 | 107 | 0.0 | 0.0 | 0.00 | 0.16 | 0.00 | 98 | 1011.5 |
| 20260510095114 | 50 | 107 | 0.0 | 0.0 | 0.00 | 0.16 | 0.00 | 98 | 1011.5 |
| 20260510095013 | 50 | 107 | 0.0 | 0.0 | 0.00 | 0.16 | 0.00 | 98 | 1011.5 |
| 20260510094942 | 50 | 107 | 0.0 | 0.0 | 0.00 | 0.16 | 0.00 | 98 | 1011.5 |
| 20260510094627 | 50 | 107 | 0.0 | 0.0 | 0.00 | 0.16 | 0.00 | 98 | 1011.5 |
| 20260510094412 | 49 | 107 | 0.0 | 0.0 | 0.00 | 0.16 | 0.00 | 98 | 1011.5 |
| 20260510094309 | 50 | 107 | 0.0 | 0.0 | 0.00 | 0.16 | 0.00 | 98 | 1011.5 |
| 20260510094209 | 50 | 107 | 0.0 | 0.0 | 0.00 | 0.16 | 0.00 | 98 | 1011.5 |
| 20260510094107 | 49 | 107 | 0.0 | 0.0 | 0.00 | 0.16 | 0.00 | 98 | 1011.4 |
| 20260510094007 | 50 | 107 | 0.0 | 0.0 | 0.00 | 0.16 | 0.00 | 98 | 1011.5 |
| 20260510093908 | 50 | 107 | 0.0 | 0.0 | 0.00 | 0.16 | 0.00 | 98 | 1011.4 |
| 20260510093806 | 50 | 107 | 0.0 | 0.0 | 0.00 | 0.16 | 0.00 | 98 | 1011.4 |
| 20260510093704 | 49 | 107 | 0.0 | 0.0 | 0.00 | 0.16 | 0.00 | 98 | 1011.4 |
| 20260510093606 | 50 | 107 | 0.0 | 0.0 | 0.00 | 0.16 | 0.00 | 98 | 1011.5 |
| 20260510093503 | 49 | 107 | 0.0 | 0.0 | 0.00 | 0.16 | 0.00 | 98 | 1011.6 |
| 20260510093419 | 50 | 107 | 0.0 | 0.0 | 0.00 | 0.16 | 0.00 | 98 | 1011.6 |
| 20260510093159 | 50 | 107 | 0.0 | 0.0 | 0.00 | 0.16 | 0.00 | 98 | 1011.6 |
| 20260510093102 | 50 | 107 | 0.0 | 0.0 | 0.00 | 0.16 | 0.00 | 98 | 1011.6 |
| 20260510092959 | 50 | 107 | 0.0 | 0.0 | 0.00 | 0.16 | 0.00 | 98 | 1011.5 |
| 20260510092902 | 50 | 107 | 0.0 | 1.7 | 0.00 | 0.16 | 0.00 | 98 | 1011.5 |
| 20260510092757 | 50 | 107 | 0.0 | 1.7 | 0.00 | 0.16 | 0.00 | 98 | 1011.4 |
| 20260510092712 | 50 | 107 | 0.0 | 1.7 | 0.00 | 0.16 | 0.00 | 98 | 1011.4 |
| 20260510092456 | 50 | 107 | 0.0 | 1.7 | 0.00 | 0.16 | 0.00 | 98 | 1011.4 |
| 20260510092410 | 50 | 107 | 0.0 | 1.7 | 0.00 | 0.16 | 0.00 | 98 | 1011.4 |
| 20260510092208 | 50 | 107 | 0.9 | 3.5 | 0.00 | 0.16 | 0.00 | 98 | 1011.3 |
| 20260510091951 | 50 | 107 | 0.9 | 3.5 | 0.00 | 0.16 | 0.00 | 98 | 1011.3 |
| 20260510091854 | 50 | 107 | 0.9 | 3.5 | 0.00 | 0.16 | 0.00 | 98 | 1011.4 |
| 20260510091750 | 50 | 107 | 0.9 | 3.5 | 0.00 | 0.16 | 0.00 | 98 | 1011.4 |
| 20260510091650 | 50 | 107 | 0.9 | 3.5 | 0.00 | 0.16 | 0.00 | 98 | 1011.4 |
| 20260510091602 | 50 | 107 | 0.9 | 3.5 | 0.00 | 0.16 | 0.00 | 98 | 1011.4 |
| 20260510091348 | 50 | 107 | 0.9 | 3.5 | 0.00 | 0.16 | 0.00 | 98 | 1011.4 |
| 20260510091245 | 50 | 94 | 0.9 | 3.5 | 0.00 | 0.16 | 0.00 | 98 | 1011.4 |
| 20260510091146 | 50 | 71 | 0.9 | 2.6 | 0.00 | 0.16 | 0.00 | 98 | 1011.4 |
| 20260510091042 | 50 | 71 | 0.0 | 2.6 | 0.00 | 0.16 | 0.00 | 98 | 1011.4 |
| 20260510090943 | 50 | 65 | 0.0 | 2.6 | 0.00 | 0.16 | 0.00 | 98 | 1011.4 |
| 20260510090857 | 50 | 64 | 0.0 | 2.6 | 0.00 | 0.16 | 0.00 | 98 | 1011.4 |
| 20260510090641 | 50 | 327 | 0.0 | 0.0 | 0.00 | 0.16 | 0.00 | 98 | 1011.4 |
| 20260510090540 | 50 | 327 | 0.0 | 0.0 | 0.00 | 0.16 | 0.00 | 98 | 1011.5 |
| 20260510090441 | 50 | 327 | 0.0 | 0.0 | 0.00 | 0.16 | 0.00 | 98 | 1011.5 |
| 20260510090340 | 50 | 327 | 0.0 | 0.0 | 0.00 | 0.16 | 0.00 | 98 | 1011.6 |
| 20260510090309 | 50 | 327 | 0.0 | 0.0 | 0.00 | 0.16 | 0.00 | 98 | 1011.5 |
| 20260510085935 | 50 | 327 | 0.0 | 0.0 | 0.00 | 0.16 | 0.00 | 98 | 1011.6 |
| 20260510085836 | 50 | 327 | 0.0 | 0.0 | 0.00 | 0.16 | 0.00 | 98 | 1011.7 |
| 20260510085749 | 50 | 327 | 0.0 | 0.0 | 0.00 | 0.16 | 0.00 | 98 | 1011.7 |
| 20260510085532 | 50 | 318 | 0.0 | 0.0 | 0.00 | 0.16 | 0.00 | 98 | 1011.7 |
| 20260510085431 | 50 | 318 | 0.0 | 0.0 | 0.00 | 0.16 | 0.00 | 98 | 1011.8 |
| 20260510085330 | 50 | 318 | 0.0 | 0.0 | 0.00 | 0.16 | 0.00 | 98 | 1011.8 |
| 20260510085229 | 50 | 318 | 0.0 | 0.0 | 0.00 | 0.16 | 0.00 | 98 | 1011.8 |
| 20260510085129 | 50 | 318 | 0.0 | 0.0 | 0.00 | 0.16 | 0.00 | 98 | 1011.8 |
| 20260510085027 | 50 | 318 | 0.0 | 0.0 | 0.00 | 0.16 | 0.00 | 98 | 1011.8 |
| 20260510084955 | 50 | 318 | 0.0 | 0.0 | 0.00 | 0.16 | 0.00 | 98 | 1011.7 |
| 20260510084626 | 50 | 318 | 0.0 | 0.0 | 0.00 | 0.16 | 0.00 | 98 | 1011.8 |
| 20260510084539 | 50 | 318 | 0.0 | 0.0 | 0.00 | 0.16 | 0.00 | 98 | 1011.7 |
| 20260510084324 | 50 | 318 | 0.0 | 0.0 | 0.00 | 0.16 | 0.00 | 98 | 1011.7 |
| 20260510084223 | 50 | 318 | 0.0 | 0.0 | 0.00 | 0.16 | 0.00 | 98 | 1011.7 |
| 20260510084122 | 50 | 318 | 0.0 | 0.0 | 0.00 | 0.16 | 0.00 | 98 | 1011.7 |
| 20260510084019 | 50 | 318 | 0.0 | 0.9 | 0.00 | 0.16 | 0.00 | 98 | 1011.8 |
| 20260510083920 | 50 | 318 | 0.0 | 2.6 | 0.00 | 0.16 | 0.00 | 98 | 1011.8 |
| 20260510083820 | 50 | 318 | 0.0 | 2.6 | 0.00 | 0.16 | 0.00 | 98 | 1011.8 |
| 20260510083717 | 50 | 318 | 0.0 | 2.6 | 0.00 | 0.16 | 0.00 | 98 | 1011.8 |
| 20260510083615 | 50 | 318 | 0.0 | 2.6 | 0.00 | 0.16 | 0.00 | 98 | 1011.8 |
| 20260510083518 | 50 | 318 | 0.0 | 2.6 | 0.00 | 0.16 | 0.00 | 98 | 1011.8 |
| 20260510083416 | 50 | 318 | 0.0 | 2.6 | 0.00 | 0.16 | 0.00 | 98 | 1011.8 |
| 20260510083316 | 50 | 318 | 0.9 | 2.6 | 0.00 | 0.16 | 0.00 | 98 | 1011.8 |
| 20260510083214 | 50 | 318 | 0.9 | 2.6 | 0.00 | 0.16 | 0.00 | 98 | 1011.7 |
| 20260510083113 | 50 | 318 | 0.9 | 2.6 | 0.00 | 0.16 | 0.00 | 98 | 1011.8 |
| 20260510083012 | 50 | 319 | 0.9 | 2.6 | 0.00 | 0.16 | 0.00 | 98 | 1011.7 |
| 20260510082930 | 50 | 323 | 0.0 | 2.6 | 0.00 | 0.16 | 0.00 | 98 | 1011.8 |
| 20260510082709 | 50 | 323 | 0.0 | 2.6 | 0.00 | 0.16 | 0.00 | 98 | 1011.7 |
| 20260510082607 | 49 | 323 | 0.0 | 2.6 | 0.00 | 0.16 | 0.00 | 98 | 1011.7 |
| 20260510082507 | 49 | 323 | 0.0 | 2.6 | 0.00 | 0.16 | 0.00 | 98 | 1011.7 |
| 20260510082407 | 49 | 323 | 0.0 | 2.6 | 0.00 | 0.16 | 0.00 | 98 | 1011.8 |
| 20260510082307 | 49 | 323 | 0.0 | 2.6 | 0.00 | 0.16 | 0.00 | 98 | 1011.8 |
| 20260510082206 | 49 | 355 | 0.0 | 2.6 | 0.00 | 0.16 | 0.00 | 98 | 1011.8 |
| 20260510082103 | 49 | 355 | 0.0 | 2.6 | 0.00 | 0.16 | 0.00 | 98 | 1011.8 |
| 20260510082002 | 49 | 355 | 0.9 | 2.6 | 0.00 | 0.16 | 0.00 | 98 | 1011.8 |
| 20260510081903 | 49 | 355 | 0.9 | 2.6 | 0.00 | 0.16 | 0.00 | 98 | 1011.8 |
| 20260510081804 | 49 | 355 | 0.9 | 2.6 | 0.00 | 0.16 | 0.00 | 98 | 1011.8 |
| 20260510081703 | 49 | 5 | 0.9 | 2.6 | 0.00 | 0.16 | 0.00 | 98 | 1011.8 |
| 20260510081618 | 49 | 355 | 0.9 | 2.6 | 0.00 | 0.16 | 0.00 | 98 | 1011.8 |
| 20260510081401 | 49 | 0 | 0.9 | 3.5 | 0.00 | 0.16 | 0.00 | 98 | 1011.7 |
| 20260510081301 | 49 | 0 | 0.9 | 3.5 | 0.00 | 0.16 | 0.00 | 98 | 1011.7 |
| 20260510081202 | 49 | 350 | 0.9 | 3.5 | 0.00 | 0.16 | 0.00 | 98 | 1011.7 |
| 20260510081059 | 49 | 339 | 0.9 | 3.5 | 0.00 | 0.16 | 0.00 | 98 | 1011.7 |
| 20260510080959 | 49 | 30 | 0.9 | 3.5 | 0.00 | 0.16 | 0.00 | 98 | 1011.6 |
| 20260510080856 | 49 | 30 | 0.9 | 3.5 | 0.00 | 0.16 | 0.00 | 98 | 1011.5 |
| 20260510080756 | 49 | 30 | 1.7 | 3.5 | 0.00 | 0.16 | 0.00 | 98 | 1011.5 |
| 20260510080656 | 49 | 30 | 1.7 | 5.2 | 0.00 | 0.16 | 0.00 | 98 | 1011.6 |
| 20260510080557 | 49 | 30 | 1.7 | 5.2 | 0.00 | 0.16 | 0.00 | 98 | 1011.6 |
| 20260510080509 | 49 | 326 | 1.7 | 5.2 | 0.00 | 0.16 | 0.00 | 98 | 1011.6 |
| 20260510080326 | 49 | 323 | 1.7 | 5.2 | 0.00 | 0.16 | 0.00 | 98 | 1011.5 |
| 20260510075954 | 49 | 324 | 0.9 | 5.2 | 0.00 | 0.16 | 0.00 | 98 | 1011.4 |
| 20260510075853 | 49 | 324 | 0.9 | 5.2 | 0.00 | 0.16 | 0.00 | 98 | 1011.5 |
| 20260510075752 | 49 | 275 | 0.9 | 5.2 | 0.00 | 0.16 | 0.00 | 98 | 1011.6 |
| 20260510075652 | 50 | 281 | 0.9 | 3.5 | 0.00 | 0.16 | 0.00 | 98 | 1011.6 |
| 20260510075551 | 49 | 318 | 0.9 | 3.5 | 0.00 | 0.16 | 0.00 | 98 | 1011.6 |
| 20260510075450 | 50 | 314 | 0.0 | 3.5 | 0.00 | 0.16 | 0.00 | 98 | 1011.4 |
| 20260510075350 | 50 | 299 | 0.0 | 3.5 | 0.00 | 0.16 | 0.00 | 98 | 1011.2 |
| 20260510075248 | 50 | 110 | 0.0 | 0.0 | 0.00 | 0.16 | 0.00 | 98 | 1011.1 |
| 20260510075149 | 50 | 110 | 0.0 | 0.0 | 0.00 | 0.16 | 0.00 | 98 | 1011.0 |
| 20260510075048 | 50 | 110 | 0.0 | 0.0 | 0.00 | 0.16 | 0.00 | 98 | 1010.9 |
| 20260510075001 | 50 | 110 | 0.0 | 0.0 | 0.00 | 0.16 | 0.00 | 98 | 1010.9 |
| 20260510074743 | 50 | 110 | 0.0 | 0.0 | 0.00 | 0.16 | 0.00 | 98 | 1010.9 |
| 20260510074644 | 50 | 110 | 0.0 | 0.0 | 0.00 | 0.16 | 0.00 | 98 | 1010.8 |
| 20260510074542 | 50 | 110 | 0.0 | 0.0 | 0.00 | 0.16 | 0.00 | 98 | 1010.9 |
| 20260510074442 | 50 | 110 | 0.0 | 0.0 | 0.00 | 0.16 | 0.00 | 98 | 1010.9 |
| 20260510074342 | 50 | 110 | 0.0 | 0.0 | 0.00 | 0.16 | 0.00 | 98 | 1010.9 |
| 20260510074241 | 50 | 110 | 0.0 | 0.0 | 0.00 | 0.16 | 0.00 | 98 | 1010.9 |
| 20260510074139 | 50 | 110 | 0.0 | 0.0 | 0.00 | 0.16 | 0.00 | 98 | 1010.9 |
| 20260510074037 | 50 | 110 | 0.0 | 0.0 | 0.00 | 0.16 | 0.00 | 98 | 1010.9 |
| 20260510073938 | 50 | 110 | 0.0 | 0.0 | 0.00 | 0.16 | 0.00 | 98 | 1010.9 |
| 20260510073838 | 50 | 110 | 0.0 | 0.0 | 0.00 | 0.16 | 0.00 | 98 | 1010.9 |
| 20260510073736 | 50 | 110 | 0.0 | 0.0 | 0.00 | 0.16 | 0.00 | 98 | 1010.9 |
| 20260510073650 | 50 | 110 | 0.0 | 0.0 | 0.00 | 0.16 | 0.00 | 98 | 1010.9 |
| 20260510073435 | 50 | 110 | 0.0 | 0.0 | 0.00 | 0.16 | 0.00 | 98 | 1010.9 |
| 20260510073348 | 50 | 110 | 0.0 | 0.0 | 0.00 | 0.16 | 0.00 | 98 | 1010.9 |
| 20260510073135 | 50 | 110 | 0.0 | 0.0 | 0.00 | 0.16 | 0.00 | 98 | 1010.9 |
| 20260510073048 | 50 | 110 | 0.0 | 0.0 | 0.00 | 0.16 | 0.00 | 98 | 1010.9 |
| 20260510072834 | 50 | 110 | 0.0 | 0.0 | 0.00 | 0.16 | 0.00 | 98 | 1010.9 |
| 20260510072734 | 50 | 110 | 0.0 | 0.0 | 0.00 | 0.16 | 0.00 | 98 | 1010.9 |
| 20260510072635 | 50 | 110 | 0.0 | 0.0 | 0.00 | 0.16 | 0.00 | 98 | 1010.8 |
| 20260510072549 | 50 | 110 | 0.0 | 0.0 | 0.00 | 0.16 | 0.00 | 98 | 1010.8 |
| 20260510072334 | 50 | 110 | 0.0 | 0.0 | 0.00 | 0.16 | 0.00 | 98 | 1010.8 |
| 20260510072249 | 50 | 110 | 0.0 | 0.0 | 0.00 | 0.16 | 0.00 | 98 | 1010.8 |
| 20260510072034 | 50 | 110 | 0.0 | 0.0 | 0.00 | 0.16 | 0.00 | 98 | 1010.8 |
| 20260510071936 | 50 | 110 | 0.0 | 0.0 | 0.00 | 0.16 | 0.00 | 98 | 1010.9 |
| 20260510071834 | 50 | 110 | 0.0 | 0.0 | 0.00 | 0.16 | 0.00 | 98 | 1010.9 |
| 20260510071734 | 50 | 110 | 0.0 | 0.0 | 0.00 | 0.16 | 0.00 | 98 | 1010.9 |
| 20260510071650 | 50 | 110 | 0.0 | 0.0 | 0.00 | 0.16 | 0.00 | 98 | 1010.9 |
| 20260510071435 | 50 | 110 | 0.0 | 0.0 | 0.00 | 0.16 | 0.00 | 98 | 1010.8 |
| 20260510071347 | 50 | 110 | 0.0 | 0.0 | 0.00 | 0.16 | 0.00 | 98 | 1010.8 |
| 20260510071134 | 50 | 110 | 0.0 | 0.0 | 0.00 | 0.16 | 0.00 | 98 | 1010.8 |
| 20260510071035 | 50 | 110 | 0.0 | 0.0 | 0.00 | 0.16 | 0.00 | 98 | 1010.8 |
| 20260510070948 | 50 | 110 | 0.0 | 0.0 | 0.00 | 0.16 | 0.00 | 98 | 1010.8 |
| 20260510070749 | 50 | 110 | 0.0 | 0.0 | 0.00 | 0.16 | 0.00 | 98 | 1010.9 |
| 20260510070534 | 50 | 110 | 0.0 | 0.0 | 0.00 | 0.16 | 0.00 | 98 | 1010.9 |
| 20260510070433 | 50 | 110 | 0.0 | 0.0 | 0.00 | 0.16 | 0.00 | 98 | 1010.9 |
| 20260510070333 | 50 | 110 | 0.0 | 0.0 | 0.00 | 0.16 | 0.00 | 98 | 1010.9 |
| 20260510070235 | 50 | 110 | 0.0 | 0.0 | 0.00 | 0.16 | 0.00 | 98 | 1010.9 |
| 20260510070135 | 50 | 110 | 0.0 | 0.0 | 0.00 | 0.16 | 0.00 | 98 | 1010.9 |
| 20260510070104 | 50 | 110 | 0.0 | 0.0 | 0.00 | 0.16 | 0.00 | 98 | 1010.9 |
| 20260510065750 | 50 | 110 | 0.0 | 0.0 | 0.00 | 0.16 | 0.00 | 98 | 1010.9 |
| 20260510065535 | 50 | 110 | 0.0 | 0.0 | 0.00 | 0.16 | 0.00 | 98 | 1010.9 |
| 20260510065434 | 50 | 110 | 0.0 | 0.0 | 0.00 | 0.16 | 0.00 | 98 | 1010.9 |
| 20260510065334 | 50 | 110 | 0.0 | 0.0 | 0.00 | 0.16 | 0.00 | 98 | 1011.0 |
| 20260510065235 | 50 | 110 | 0.0 | 0.0 | 0.00 | 0.16 | 0.00 | 98 | 1011.0 |
| 20260510065148 | 50 | 110 | 0.0 | 0.0 | 0.00 | 0.16 | 0.00 | 98 | 1011.0 |
| 20260510064934 | 50 | 110 | 0.0 | 0.0 | 0.00 | 0.16 | 0.00 | 98 | 1011.1 |
| 20260510064835 | 50 | 110 | 0.0 | 0.0 | 0.00 | 0.16 | 0.00 | 98 | 1011.0 |
| 20260510064733 | 50 | 110 | 0.0 | 0.0 | 0.00 | 0.16 | 0.00 | 98 | 1011.1 |
| 20260510064633 | 50 | 110 | 0.0 | 0.0 | 0.00 | 0.16 | 0.00 | 98 | 1011.1 |
| 20260510064534 | 50 | 110 | 0.0 | 0.0 | 0.00 | 0.16 | 0.00 | 98 | 1011.0 |
| 20260510064434 | 50 | 110 | 0.0 | 0.0 | 0.00 | 0.16 | 0.00 | 98 | 1011.1 |
| 20260510064333 | 50 | 110 | 0.0 | 0.0 | 0.00 | 0.16 | 0.00 | 98 | 1011.1 |
| 20260510064235 | 50 | 110 | 0.0 | 0.0 | 0.00 | 0.16 | 0.00 | 98 | 1011.1 |
| 20260510064134 | 50 | 110 | 0.0 | 0.0 | 0.00 | 0.16 | 0.00 | 98 | 1011.0 |
| 20260510064034 | 50 | 110 | 0.0 | 0.0 | 0.00 | 0.16 | 0.00 | 98 | 1011.0 |
| 20260510063935 | 50 | 110 | 0.0 | 0.0 | 0.00 | 0.16 | 0.00 | 98 | 1011.1 |
| 20260510063834 | 50 | 110 | 0.0 | 0.0 | 0.00 | 0.16 | 0.00 | 98 | 1011.0 |
| 20260510063733 | 50 | 110 | 0.0 | 0.0 | 0.00 | 0.16 | 0.00 | 98 | 1011.0 |
| 20260510063651 | 50 | 110 | 0.0 | 0.0 | 0.00 | 0.16 | 0.00 | 98 | 1011.0 |
| 20260510063435 | 50 | 110 | 0.0 | 0.0 | 0.00 | 0.16 | 0.00 | 98 | 1011.1 |
| 20260510063335 | 50 | 110 | 0.0 | 0.0 | 0.00 | 0.16 | 0.00 | 98 | 1011.1 |
| 20260510063233 | 50 | 110 | 0.0 | 0.0 | 0.00 | 0.16 | 0.00 | 98 | 1011.1 |
| 20260510063152 | 50 | 110 | 0.0 | 0.0 | 0.00 | 0.16 | 0.00 | 98 | 1011.1 |
| 20260510062934 | 50 | 110 | 0.0 | 0.0 | 0.00 | 0.16 | 0.00 | 98 | 1011.1 |
| 20260510062835 | 50 | 110 | 0.0 | 0.0 | 0.00 | 0.16 | 0.00 | 98 | 1011.1 |
| 20260510062734 | 50 | 110 | 0.0 | 0.0 | 0.00 | 0.16 | 0.00 | 98 | 1011.1 |
| 20260510062635 | 50 | 110 | 0.0 | 0.0 | 0.00 | 0.16 | 0.00 | 98 | 1011.1 |
| 20260510062533 | 50 | 110 | 0.0 | 0.0 | 0.00 | 0.16 | 0.00 | 98 | 1011.1 |
| 20260510062435 | 50 | 110 | 0.0 | 0.0 | 0.00 | 0.16 | 0.00 | 98 | 1011.1 |
| 20260510062333 | 50 | 110 | 0.0 | 0.0 | 0.00 | 0.16 | 0.00 | 98 | 1011.1 |
| 20260510062234 | 50 | 111 | 0.0 | 0.0 | 0.00 | 0.16 | 0.00 | 98 | 1011.1 |
| 20260510062132 | 50 | 111 | 0.0 | 0.0 | 0.00 | 0.16 | 0.00 | 98 | 1011.1 |
| 20260510062032 | 50 | 111 | 0.0 | 0.0 | 0.00 | 0.16 | 0.00 | 98 | 1011.1 |
| 20260510061947 | 50 | 111 | 0.0 | 0.0 | 0.00 | 0.16 | 0.00 | 98 | 1011.0 |
| 20260510061732 | 50 | 111 | 0.0 | 0.0 | 0.00 | 0.16 | 0.00 | 98 | 1011.1 |
| 20260510061633 | 50 | 111 | 0.0 | 0.0 | 0.00 | 0.16 | 0.00 | 98 | 1011.0 |
| 20260510061533 | 50 | 111 | 0.0 | 0.0 | 0.00 | 0.16 | 0.00 | 98 | 1011.0 |
| 20260510061432 | 50 | 111 | 0.0 | 0.0 | 0.00 | 0.16 | 0.00 | 98 | 1011.0 |
| 20260510061331 | 50 | 111 | 0.0 | 0.0 | 0.00 | 0.16 | 0.00 | 98 | 1010.9 |
| 20260510061233 | 50 | 111 | 0.0 | 0.0 | 0.00 | 0.16 | 0.00 | 98 | 1010.9 |
| 20260510061147 | 50 | 111 | 0.0 | 0.0 | 0.00 | 0.16 | 0.00 | 98 | 1010.9 |
| 20260510060947 | 50 | 111 | 0.0 | 0.0 | 0.00 | 0.16 | 0.00 | 98 | 1010.8 |
| 20260510060732 | 50 | 111 | 0.0 | 0.0 | 0.00 | 0.16 | 0.00 | 98 | 1010.8 |
| 20260510060633 | 50 | 111 | 0.0 | 0.0 | 0.00 | 0.16 | 0.00 | 98 | 1010.8 |
| 20260510060533 | 50 | 111 | 0.0 | 0.0 | 0.00 | 0.16 | 0.00 | 98 | 1010.8 |
| 20260510060433 | 50 | 111 | 0.0 | 0.0 | 0.00 | 0.16 | 0.00 | 98 | 1010.8 |
| 20260510060332 | 50 | 111 | 0.0 | 0.0 | 0.00 | 0.16 | 0.00 | 98 | 1010.8 |
| 20260510060231 | 50 | 111 | 0.0 | 0.0 | 0.00 | 0.16 | 0.00 | 98 | 1010.8 |
| 20260510060148 | 50 | 111 | 0.0 | 0.0 | 0.00 | 0.16 | 0.00 | 98 | 1010.8 |
| 20260510055932 | 50 | 111 | 0.0 | 0.0 | 0.00 | 0.16 | 0.00 | 98 | 1010.8 |
| 20260510055832 | 50 | 111 | 0.0 | 0.0 | 0.00 | 0.16 | 0.00 | 98 | 1010.7 |
| 20260510055734 | 50 | 111 | 0.0 | 0.0 | 0.00 | 0.16 | 0.00 | 98 | 1010.8 |
| 20260510055632 | 50 | 111 | 0.0 | 0.0 | 0.00 | 0.16 | 0.00 | 98 | 1010.7 |
| 20260510055531 | 50 | 111 | 0.0 | 0.0 | 0.00 | 0.16 | 0.00 | 98 | 1010.7 |
| 20260510055434 | 50 | 111 | 0.0 | 0.0 | 0.00 | 0.16 | 0.00 | 98 | 1010.7 |
| 20260510055331 | 50 | 111 | 0.0 | 0.0 | 0.00 | 0.16 | 0.00 | 98 | 1010.7 |
| 20260510055306 | 50 | 111 | 0.0 | 0.0 | 0.00 | 0.16 | 0.00 | 98 | 1010.8 |
| 20260510054932 | 50 | 111 | 0.0 | 0.0 | 0.00 | 0.16 | 0.00 | 98 | 1010.7 |
| 20260510054832 | 50 | 111 | 0.0 | 0.0 | 0.00 | 0.16 | 0.00 | 98 | 1010.8 |
| 20260510054734 | 50 | 111 | 0.0 | 0.0 | 0.00 | 0.16 | 0.00 | 98 | 1010.7 |
| 20260510054631 | 50 | 111 | 0.0 | 0.0 | 0.00 | 0.16 | 0.00 | 98 | 1010.8 |
| 20260510054532 | 50 | 111 | 0.0 | 0.0 | 0.00 | 0.16 | 0.00 | 98 | 1010.8 |
| 20260510054433 | 50 | 111 | 0.0 | 0.0 | 0.00 | 0.16 | 0.00 | 98 | 1010.8 |
| 20260510054332 | 50 | 111 | 0.0 | 0.0 | 0.00 | 0.16 | 0.00 | 98 | 1010.8 |
| 20260510054234 | 50 | 111 | 0.0 | 0.0 | 0.00 | 0.16 | 0.00 | 98 | 1010.9 |
| 20260510054131 | 50 | 111 | 0.0 | 0.0 | 0.00 | 0.16 | 0.00 | 98 | 1010.8 |
| 20260510054032 | 50 | 111 | 0.0 | 0.0 | 0.00 | 0.16 | 0.00 | 98 | 1010.8 |
| 20260510053932 | 50 | 111 | 0.0 | 0.0 | 0.00 | 0.16 | 0.00 | 98 | 1010.8 |
| 20260510053832 | 50 | 111 | 0.0 | 0.0 | 0.00 | 0.16 | 0.00 | 98 | 1010.8 |
| 20260510053751 | 50 | 111 | 0.0 | 0.0 | 0.00 | 0.16 | 0.00 | 98 | 1010.9 |
| 20260510053547 | 50 | 111 | 0.0 | 0.0 | 0.00 | 0.16 | 0.00 | 98 | 1010.9 |
| 20260510053331 | 50 | 111 | 0.0 | 0.0 | 0.00 | 0.16 | 0.00 | 98 | 1010.9 |
| 20260510053233 | 50 | 111 | 0.0 | 0.0 | 0.00 | 0.16 | 0.00 | 98 | 1010.9 |
| 20260510053145 | 50 | 111 | 0.0 | 0.0 | 0.00 | 0.16 | 0.00 | 98 | 1010.9 |
| 20260510052931 | 50 | 111 | 0.0 | 0.0 | 0.00 | 0.16 | 0.00 | 98 | 1010.9 |
| 20260510052832 | 50 | 111 | 0.0 | 0.0 | 0.00 | 0.16 | 0.00 | 98 | 1010.9 |
| 20260510052746 | 50 | 111 | 0.0 | 0.0 | 0.00 | 0.16 | 0.00 | 98 | 1010.8 |
| 20260510052531 | 50 | 111 | 0.0 | 0.0 | 0.00 | 0.16 | 0.00 | 97 | 1010.8 |
| 20260510052447 | 50 | 111 | 0.0 | 0.0 | 0.00 | 0.16 | 0.00 | 97 | 1010.8 |
| 20260510052233 | 50 | 111 | 0.0 | 0.0 | 0.00 | 0.16 | 0.00 | 97 | 1010.8 |
| 20260510052131 | 50 | 111 | 0.0 | 0.0 | 0.00 | 0.16 | 0.00 | 97 | 1010.8 |
| 20260510052031 | 50 | 111 | 0.0 | 0.0 | 0.00 | 0.16 | 0.00 | 97 | 1010.8 |
| 20260510051933 | 50 | 111 | 0.0 | 0.0 | 0.00 | 0.16 | 0.00 | 97 | 1010.8 |
| 20260510051832 | 50 | 111 | 0.0 | 0.0 | 0.00 | 0.16 | 0.00 | 97 | 1010.8 |
| 20260510051730 | 50 | 111 | 0.0 | 0.0 | 0.00 | 0.16 | 0.00 | 97 | 1010.8 |
| 20260510051648 | 50 | 111 | 0.0 | 0.0 | 0.00 | 0.16 | 0.00 | 97 | 1010.8 |
| 20260510051431 | 50 | 111 | 0.0 | 0.0 | 0.00 | 0.16 | 0.00 | 97 | 1010.8 |
| 20260510051330 | 50 | 111 | 0.0 | 0.0 | 0.00 | 0.16 | 0.00 | 97 | 1010.8 |
| 20260510051230 | 50 | 111 | 0.0 | 0.0 | 0.00 | 0.16 | 0.00 | 97 | 1010.8 |
| 20260510051127 | 49 | 111 | 0.0 | 0.0 | 0.00 | 0.16 | 0.00 | 97 | 1010.8 |
| 20260510051028 | 49 | 111 | 0.0 | 0.0 | 0.00 | 0.16 | 0.00 | 97 | 1010.8 |
| 20260510050926 | 49 | 111 | 0.0 | 0.0 | 0.00 | 0.16 | 0.00 | 97 | 1010.9 |
| 20260510050839 | 49 | 111 | 0.0 | 0.0 | 0.00 | 0.16 | 0.00 | 97 | 1010.9 |
| 20260510050639 | 49 | 111 | 0.0 | 0.0 | 0.00 | 0.16 | 0.00 | 97 | 1010.9 |
| 20260510050422 | 49 | 111 | 0.0 | 0.0 | 0.00 | 0.16 | 0.00 | 97 | 1010.9 |
| 20260510050321 | 49 | 111 | 0.0 | 0.0 | 0.00 | 0.16 | 0.00 | 97 | 1011.0 |
| 20260510050221 | 49 | 111 | 0.0 | 0.0 | 0.00 | 0.16 | 0.00 | 97 | 1011.0 |
| 20260510050120 | 49 | 111 | 0.0 | 0.0 | 0.00 | 0.16 | 0.00 | 97 | 1011.0 |
| 20260510050036 | 49 | 111 | 0.0 | 0.0 | 0.00 | 0.16 | 0.00 | 98 | 1011.0 |
| 20260510045831 | 49 | 111 | 0.0 | 0.0 | 0.00 | 0.16 | 0.00 | 98 | 1011.0 |
| 20260510045616 | 49 | 111 | 0.0 | 0.0 | 0.00 | 0.16 | 0.00 | 98 | 1011.0 |
| 20260510045515 | 49 | 111 | 0.0 | 0.0 | 0.00 | 0.16 | 0.00 | 98 | 1011.0 |
| 20260510045415 | 49 | 111 | 0.0 | 0.0 | 0.00 | 0.16 | 0.00 | 98 | 1011.0 |
| 20260510045315 | 49 | 111 | 0.0 | 0.0 | 0.00 | 0.16 | 0.00 | 98 | 1011.1 |
| 20260510045212 | 49 | 111 | 0.0 | 0.0 | 0.00 | 0.16 | 0.00 | 98 | 1011.1 |
| 20260510045112 | 49 | 111 | 0.0 | 0.0 | 0.00 | 0.16 | 0.00 | 98 | 1011.0 |
| 20260510045012 | 49 | 111 | 0.0 | 0.0 | 0.00 | 0.16 | 0.00 | 97 | 1011.0 |
| 20260510044910 | 49 | 111 | 0.0 | 0.0 | 0.00 | 0.16 | 0.00 | 98 | 1011.0 |
| 20260510044809 | 49 | 111 | 0.0 | 0.0 | 0.00 | 0.16 | 0.00 | 98 | 1011.0 |
| 20260510044708 | 49 | 111 | 0.0 | 0.0 | 0.00 | 0.16 | 0.00 | 97 | 1011.0 |
| 20260510044608 | 49 | 111 | 0.0 | 0.0 | 0.00 | 0.16 | 0.00 | 98 | 1011.0 |
| 20260510044505 | 49 | 111 | 0.0 | 0.0 | 0.00 | 0.16 | 0.00 | 98 | 1011.0 |
| 20260510044406 | 49 | 111 | 0.0 | 0.0 | 0.00 | 0.16 | 0.00 | 98 | 1011.0 |
| 20260510044305 | 49 | 111 | 0.0 | 0.0 | 0.00 | 0.16 | 0.00 | 98 | 1010.9 |
| 20260510044206 | 49 | 111 | 0.0 | 0.0 | 0.00 | 0.16 | 0.00 | 98 | 1011.0 |
| 20260510044105 | 49 | 111 | 0.0 | 0.0 | 0.00 | 0.16 | 0.00 | 97 | 1011.0 |
| 20260510044005 | 49 | 111 | 0.0 | 0.0 | 0.00 | 0.16 | 0.00 | 97 | 1011.0 |
| 20260510043904 | 49 | 111 | 0.0 | 0.0 | 0.00 | 0.16 | 0.00 | 97 | 1011.0 |
| 20260510043818 | 49 | 111 | 0.0 | 0.0 | 0.00 | 0.16 | 0.00 | 97 | 1011.0 |
| 20260510043600 | 49 | 111 | 0.0 | 0.0 | 0.00 | 0.16 | 0.00 | 97 | 1011.0 |
| 20260510043502 | 49 | 111 | 0.0 | 0.0 | 0.00 | 0.16 | 0.00 | 97 | 1011.0 |
| 20260510043359 | 49 | 111 | 0.0 | 0.0 | 0.00 | 0.16 | 0.00 | 97 | 1011.0 |
| 20260510043300 | 49 | 111 | 0.0 | 0.0 | 0.00 | 0.16 | 0.00 | 97 | 1011.1 |
| 20260510043211 | 49 | 111 | 0.0 | 0.0 | 0.00 | 0.16 | 0.00 | 97 | 1011.0 |
| 20260510042958 | 49 | 111 | 0.0 | 0.0 | 0.00 | 0.16 | 0.00 | 97 | 1011.1 |
| 20260510042854 | 49 | 111 | 0.0 | 0.0 | 0.00 | 0.16 | 0.00 | 97 | 1011.1 |
| 20260510042755 | 49 | 111 | 0.0 | 0.0 | 0.00 | 0.16 | 0.00 | 97 | 1011.1 |
| 20260510042653 | 49 | 111 | 0.0 | 0.0 | 0.00 | 0.16 | 0.00 | 97 | 1011.1 |
| 20260510042553 | 49 | 111 | 0.0 | 0.0 | 0.00 | 0.16 | 0.00 | 97 | 1011.1 |
| 20260510042508 | 49 | 111 | 0.0 | 0.0 | 0.00 | 0.16 | 0.00 | 97 | 1011.1 |
| 20260510042253 | 48 | 111 | 0.0 | 0.0 | 0.00 | 0.16 | 0.00 | 97 | 1011.1 |
| 20260510042149 | 48 | 111 | 0.0 | 0.0 | 0.00 | 0.16 | 0.00 | 97 | 1011.2 |
| 20260510042050 | 48 | 111 | 0.0 | 0.0 | 0.00 | 0.16 | 0.00 | 97 | 1011.2 |
| 20260510041948 | 48 | 111 | 0.0 | 0.0 | 0.00 | 0.16 | 0.00 | 97 | 1011.2 |
| 20260510041847 | 48 | 111 | 0.0 | 0.0 | 0.00 | 0.16 | 0.00 | 97 | 1011.2 |
| 20260510041747 | 48 | 111 | 0.0 | 0.0 | 0.00 | 0.16 | 0.00 | 97 | 1011.1 |
| 20260510041646 | 48 | 111 | 0.0 | 0.0 | 0.00 | 0.16 | 0.00 | 97 | 1011.1 |
| 20260510041559 | 48 | 111 | 0.0 | 0.0 | 0.00 | 0.16 | 0.00 | 97 | 1011.1 |
| 20260510041345 | 48 | 111 | 0.0 | 0.0 | 0.00 | 0.16 | 0.00 | 97 | 1011.1 |
| 20260510041243 | 48 | 111 | 0.0 | 0.0 | 0.00 | 0.16 | 0.00 | 97 | 1011.1 |
| 20260510041141 | 48 | 111 | 0.0 | 0.0 | 0.00 | 0.16 | 0.00 | 97 | 1011.1 |
| 20260510041040 | 48 | 111 | 0.0 | 0.0 | 0.00 | 0.16 | 0.00 | 97 | 1011.0 |
| 20260510040954 | 48 | 111 | 0.0 | 0.0 | 0.00 | 0.16 | 0.00 | 97 | 1011.0 |
| 20260510040740 | 48 | 111 | 0.0 | 0.0 | 0.00 | 0.16 | 0.00 | 97 | 1011.0 |
| 20260510040640 | 48 | 111 | 0.0 | 0.0 | 0.00 | 0.16 | 0.00 | 97 | 1011.0 |
| 20260510040541 | 48 | 111 | 0.0 | 0.0 | 0.00 | 0.16 | 0.00 | 97 | 1011.1 |
| 20260510040440 | 48 | 111 | 0.0 | 0.0 | 0.00 | 0.16 | 0.00 | 97 | 1011.0 |
| 20260510040339 | 48 | 111 | 0.0 | 0.0 | 0.00 | 0.16 | 0.00 | 97 | 1011.1 |
| 20260510040239 | 48 | 111 | 0.0 | 0.0 | 0.00 | 0.16 | 0.00 | 97 | 1011.0 |
| 20260510040138 | 48 | 111 | 0.0 | 0.0 | 0.00 | 0.16 | 0.00 | 97 | 1011.1 |
| 20260510040051 | 48 | 111 | 0.0 | 0.0 | 0.00 | 0.16 | 0.00 | 97 | 1011.0 |
| 20260510035838 | 47 | 111 | 0.0 | 0.0 | 0.00 | 0.16 | 0.16 | 97 | 1011.0 |
| 20260510035752 | 47 | 111 | 0.0 | 0.0 | 0.00 | 0.16 | 0.16 | 97 | 1011.0 |
| 20260510035538 | 47 | 111 | 0.0 | 0.0 | 0.00 | 0.16 | 0.16 | 97 | 1011.0 |
| 20260510035437 | 47 | 111 | 0.0 | 0.0 | 0.00 | 0.16 | 0.16 | 97 | 1011.0 |
| 20260510035338 | 47 | 111 | 0.0 | 0.0 | 0.00 | 0.16 | 0.16 | 97 | 1010.9 |
| 20260510035236 | 47 | 111 | 0.0 | 0.0 | 0.00 | 0.16 | 0.16 | 97 | 1011.0 |
| 20260510035138 | 47 | 111 | 0.0 | 0.0 | 0.00 | 0.16 | 0.16 | 97 | 1010.9 |
| 20260510035037 | 47 | 111 | 0.0 | 0.0 | 0.00 | 0.16 | 0.16 | 97 | 1010.9 |
| 20260510034938 | 47 | 111 | 0.0 | 0.0 | 0.00 | 0.16 | 0.16 | 97 | 1010.9 |
| 20260510034836 | 47 | 111 | 0.0 | 0.0 | 0.00 | 0.16 | 0.16 | 97 | 1010.9 |
| 20260510034739 | 47 | 111 | 0.0 | 0.0 | 0.00 | 0.16 | 0.16 | 97 | 1010.9 |
| 20260510034636 | 47 | 111 | 0.0 | 0.0 | 0.00 | 0.16 | 0.16 | 97 | 1011.0 |
| 20260510034537 | 47 | 111 | 0.0 | 0.0 | 0.00 | 0.16 | 0.16 | 97 | 1010.9 |
| 20260510034437 | 47 | 111 | 0.0 | 0.0 | 0.00 | 0.16 | 0.16 | 96 | 1010.9 |
| 20260510034337 | 47 | 111 | 0.0 | 0.0 | 0.00 | 0.16 | 0.16 | 96 | 1011.0 |
| 20260510034237 | 47 | 111 | 0.0 | 0.0 | 0.00 | 0.16 | 0.16 | 96 | 1011.0 |
| 20260510034138 | 47 | 111 | 0.0 | 0.0 | 0.00 | 0.16 | 0.16 | 96 | 1011.0 |
| 20260510034037 | 47 | 111 | 0.0 | 0.0 | 0.00 | 0.16 | 0.16 | 96 | 1011.0 |
| 20260510033937 | 47 | 111 | 0.0 | 0.0 | 0.00 | 0.16 | 0.16 | 96 | 1010.9 |
| 20260510033837 | 47 | 111 | 0.0 | 0.0 | 0.00 | 0.16 | 0.16 | 96 | 1010.9 |
| 20260510033739 | 47 | 111 | 0.0 | 0.0 | 0.00 | 0.16 | 0.16 | 96 | 1010.9 |
| 20260510033637 | 47 | 111 | 0.0 | 0.0 | 0.00 | 0.16 | 0.16 | 96 | 1010.9 |
| 20260510033536 | 47 | 111 | 0.0 | 0.0 | 0.00 | 0.16 | 0.16 | 96 | 1010.9 |
| 20260510033437 | 47 | 111 | 0.0 | 0.0 | 0.00 | 0.16 | 0.16 | 96 | 1010.8 |
| 20260510033338 | 47 | 111 | 0.0 | 0.0 | 0.00 | 0.16 | 0.16 | 96 | 1010.8 |
| 20260510033236 | 47 | 111 | 0.0 | 0.0 | 0.00 | 0.16 | 0.16 | 96 | 1010.8 |
| 20260510033138 | 47 | 111 | 0.0 | 0.0 | 0.00 | 0.16 | 0.16 | 96 | 1010.8 |
| 20260510033037 | 47 | 111 | 0.0 | 0.0 | 0.00 | 0.16 | 0.16 | 96 | 1010.8 |
| 20260510032937 | 47 | 111 | 0.0 | 0.0 | 0.00 | 0.16 | 0.16 | 96 | 1010.8 |
| 20260510032837 | 47 | 111 | 0.0 | 0.0 | 0.00 | 0.16 | 0.16 | 96 | 1010.9 |
| 20260510032752 | 47 | 111 | 0.0 | 0.0 | 0.00 | 0.16 | 0.16 | 96 | 1010.8 |
| 20260510032538 | 48 | 111 | 0.0 | 0.0 | 0.00 | 0.16 | 0.16 | 96 | 1010.8 |
| 20260510032438 | 48 | 111 | 0.0 | 0.0 | 0.00 | 0.16 | 0.16 | 96 | 1010.8 |
| 20260510032338 | 48 | 111 | 0.0 | 0.0 | 0.00 | 0.16 | 0.16 | 96 | 1010.8 |
| 20260510032237 | 48 | 111 | 0.0 | 0.0 | 0.00 | 0.16 | 0.16 | 96 | 1010.7 |
| 20260510032138 | 48 | 111 | 0.0 | 0.0 | 0.00 | 0.16 | 0.16 | 96 | 1010.7 |
| 20260510032036 | 48 | 111 | 0.0 | 0.0 | 0.00 | 0.16 | 0.16 | 96 | 1010.7 |
| 20260510031937 | 48 | 111 | 0.0 | 0.0 | 0.00 | 0.16 | 0.16 | 96 | 1010.8 |
| 20260510031851 | 48 | 111 | 0.0 | 0.0 | 0.00 | 0.16 | 0.16 | 96 | 1010.7 |
| 20260510031637 | 48 | 111 | 0.0 | 0.0 | 0.00 | 0.16 | 0.16 | 96 | 1010.8 |
| 20260510031538 | 48 | 111 | 0.0 | 0.0 | 0.00 | 0.16 | 0.16 | 96 | 1010.8 |
| 20260510031436 | 48 | 111 | 0.0 | 0.0 | 0.00 | 0.16 | 0.16 | 96 | 1010.8 |
| 20260510031338 | 48 | 111 | 0.0 | 0.0 | 0.00 | 0.16 | 0.16 | 96 | 1010.7 |
| 20260510031237 | 48 | 111 | 0.0 | 0.0 | 0.00 | 0.16 | 0.16 | 96 | 1010.7 |
| 20260510031138 | 48 | 111 | 0.0 | 0.0 | 0.00 | 0.16 | 0.16 | 96 | 1010.7 |
| 20260510031037 | 48 | 111 | 0.0 | 0.0 | 0.00 | 0.16 | 0.16 | 96 | 1010.7 |
| 20260510030938 | 48 | 111 | 0.0 | 0.0 | 0.00 | 0.16 | 0.16 | 96 | 1010.7 |
| 20260510030838 | 48 | 111 | 0.0 | 0.0 | 0.00 | 0.16 | 0.16 | 96 | 1010.7 |
| 20260510030736 | 48 | 111 | 0.0 | 0.0 | 0.00 | 0.16 | 0.16 | 96 | 1010.7 |
| 20260510030639 | 48 | 111 | 0.0 | 0.0 | 0.00 | 0.16 | 0.16 | 96 | 1010.7 |
| 20260510030536 | 48 | 111 | 0.0 | 0.0 | 0.00 | 0.16 | 0.16 | 96 | 1010.7 |
| 20260510030437 | 48 | 111 | 0.0 | 0.0 | 0.00 | 0.16 | 0.16 | 96 | 1010.7 |
| 20260510030340 | 48 | 111 | 0.0 | 0.0 | 0.00 | 0.16 | 0.16 | 96 | 1010.7 |
| 20260510030236 | 48 | 111 | 0.0 | 0.0 | 0.00 | 0.16 | 0.16 | 96 | 1010.7 |
| 20260510030151 | 48 | 111 | 0.0 | 0.0 | 0.00 | 0.16 | 0.16 | 96 | 1010.7 |
| 20260510025938 | 48 | 111 | 0.0 | 0.0 | 0.00 | 0.16 | 0.16 | 96 | 1010.6 |
| 20260510025837 | 48 | 111 | 0.0 | 0.0 | 0.00 | 0.16 | 0.16 | 96 | 1010.6 |
| 20260510025738 | 48 | 111 | 0.0 | 0.0 | 0.00 | 0.16 | 0.16 | 96 | 1010.7 |
| 20260510025636 | 48 | 111 | 0.0 | 0.0 | 0.00 | 0.16 | 0.16 | 96 | 1010.7 |
| 20260510025538 | 48 | 111 | 0.0 | 0.0 | 0.00 | 0.16 | 0.16 | 96 | 1010.7 |
| 20260510025436 | 48 | 111 | 0.0 | 0.0 | 0.00 | 0.16 | 0.16 | 96 | 1010.6 |
| 20260510025338 | 48 | 111 | 0.0 | 0.0 | 0.00 | 0.16 | 0.16 | 96 | 1010.6 |
| 20260510025312 | 48 | 111 | 0.0 | 0.0 | 0.00 | 0.16 | 0.16 | 96 | 1010.7 |
| 20260510024937 | 49 | 111 | 0.0 | 0.0 | 0.00 | 0.16 | 0.16 | 96 | 1010.6 |
| 20260510024836 | 49 | 111 | 0.0 | 0.0 | 0.00 | 0.16 | 0.16 | 96 | 1010.6 |
| 20260510024752 | 49 | 111 | 0.0 | 0.0 | 0.00 | 0.16 | 0.16 | 96 | 1010.6 |
| 20260510024537 | 49 | 111 | 0.0 | 0.0 | 0.00 | 0.16 | 0.16 | 96 | 1010.7 |
| 20260510024435 | 49 | 111 | 0.0 | 0.0 | 0.00 | 0.16 | 0.16 | 96 | 1010.7 |
| 20260510024335 | 49 | 111 | 0.0 | 0.0 | 0.00 | 0.16 | 0.16 | 96 | 1010.7 |
| 20260510024233 | 49 | 111 | 0.0 | 0.0 | 0.00 | 0.16 | 0.16 | 96 | 1010.7 |
| 20260510024133 | 49 | 111 | 0.0 | 0.0 | 0.00 | 0.16 | 0.16 | 96 | 1010.6 |
| 20260510024031 | 49 | 111 | 0.0 | 0.0 | 0.00 | 0.16 | 0.16 | 96 | 1010.6 |
| 20260510023931 | 49 | 111 | 0.0 | 0.0 | 0.00 | 0.16 | 0.16 | 96 | 1010.6 |
| 20260510023831 | 49 | 111 | 0.0 | 0.0 | 0.00 | 0.16 | 0.16 | 96 | 1010.6 |
| 20260510023747 | 49 | 111 | 0.0 | 0.0 | 0.00 | 0.16 | 0.16 | 96 | 1010.6 |
| 20260510023543 | 49 | 111 | 0.0 | 0.0 | 0.00 | 0.16 | 0.16 | 96 | 1010.7 |
| 20260510023327 | 49 | 111 | 0.0 | 0.0 | 0.00 | 0.16 | 0.16 | 96 | 1010.7 |
| 20260510023226 | 49 | 111 | 0.0 | 0.0 | 0.00 | 0.16 | 0.16 | 96 | 1010.6 |
| 20260510023153 | 49 | 111 | 0.0 | 0.0 | 0.00 | 0.16 | 0.16 | 96 | 1010.7 |
| 20260510022823 | 49 | 111 | 0.0 | 0.0 | 0.00 | 0.16 | 0.16 | 96 | 1010.6 |
| 20260510022721 | 49 | 111 | 0.0 | 0.0 | 0.00 | 0.16 | 0.16 | 96 | 1010.6 |
| 20260510022621 | 49 | 111 | 0.0 | 0.0 | 0.00 | 0.16 | 0.16 | 96 | 1010.6 |
| 20260510022521 | 49 | 111 | 0.0 | 0.0 | 0.00 | 0.16 | 0.16 | 96 | 1010.6 |
| 20260510022435 | 49 | 111 | 0.0 | 0.0 | 0.00 | 0.16 | 0.16 | 96 | 1010.5 |
| 20260510022219 | 49 | 111 | 0.0 | 0.0 | 0.00 | 0.16 | 0.16 | 96 | 1010.6 |
| 20260510022116 | 49 | 111 | 0.0 | 0.0 | 0.00 | 0.16 | 0.16 | 96 | 1010.7 |
| 20260510022015 | 49 | 111 | 0.0 | 0.0 | 0.00 | 0.16 | 0.16 | 96 | 1010.7 |
| 20260510021916 | 49 | 111 | 0.0 | 0.0 | 0.00 | 0.16 | 0.16 | 96 | 1010.7 |
| 20260510021814 | 49 | 111 | 0.0 | 0.0 | 0.00 | 0.16 | 0.16 | 96 | 1010.7 |
| 20260510021714 | 49 | 111 | 0.0 | 0.0 | 0.00 | 0.16 | 0.16 | 96 | 1010.8 |
| 20260510021612 | 49 | 111 | 0.0 | 0.0 | 0.00 | 0.16 | 0.16 | 96 | 1010.7 |
| 20260510021511 | 49 | 111 | 0.0 | 0.0 | 0.00 | 0.16 | 0.16 | 96 | 1010.7 |
| 20260510021411 | 49 | 111 | 0.0 | 0.0 | 0.00 | 0.16 | 0.16 | 96 | 1010.7 |
| 20260510021311 | 49 | 111 | 0.0 | 0.0 | 0.00 | 0.16 | 0.16 | 96 | 1010.8 |
| 20260510021210 | 49 | 111 | 0.0 | 0.0 | 0.00 | 0.16 | 0.16 | 96 | 1010.8 |
| 20260510021122 | 49 | 111 | 0.0 | 0.0 | 0.00 | 0.16 | 0.16 | 96 | 1010.8 |
| 20260510020906 | 49 | 111 | 0.0 | 0.0 | 0.00 | 0.16 | 0.16 | 96 | 1010.8 |
| 20260510020806 | 50 | 111 | 0.0 | 0.0 | 0.00 | 0.16 | 0.16 | 96 | 1010.8 |
| 20260510020720 | 50 | 111 | 0.0 | 0.0 | 0.00 | 0.16 | 0.16 | 96 | 1010.8 |
| 20260510020504 | 50 | 111 | 0.0 | 0.0 | 0.00 | 0.16 | 0.16 | 96 | 1010.8 |
| 20260510020406 | 50 | 111 | 0.0 | 0.0 | 0.00 | 0.16 | 0.16 | 96 | 1010.8 |
| 20260510020305 | 50 | 111 | 0.0 | 0.0 | 0.00 | 0.16 | 0.16 | 96 | 1010.8 |
| 20260510020205 | 50 | 111 | 0.0 | 0.0 | 0.00 | 0.16 | 0.16 | 96 | 1010.9 |
| 20260510020103 | 50 | 111 | 0.0 | 0.0 | 0.00 | 0.16 | 0.16 | 96 | 1010.9 |
| 20260510020003 | 50 | 111 | 0.0 | 0.0 | 0.00 | 0.16 | 0.16 | 96 | 1010.9 |
| 20260510015902 | 50 | 111 | 0.0 | 0.0 | 0.00 | 0.16 | 0.16 | 96 | 1010.9 |
| 20260510015802 | 50 | 111 | 0.0 | 0.0 | 0.00 | 0.16 | 0.16 | 96 | 1010.8 |
| 20260510015701 | 50 | 111 | 0.0 | 0.0 | 0.00 | 0.16 | 0.16 | 96 | 1010.8 |
| 20260510015616 | 50 | 111 | 0.0 | 0.0 | 0.00 | 0.16 | 0.16 | 96 | 1010.7 |
| 20260510015400 | 50 | 111 | 0.0 | 0.0 | 0.00 | 0.16 | 0.16 | 96 | 1010.8 |
| 20260510015257 | 50 | 111 | 0.0 | 0.0 | 0.00 | 0.16 | 0.16 | 96 | 1010.7 |
| 20260510015158 | 50 | 111 | 0.0 | 0.0 | 0.00 | 0.16 | 0.16 | 96 | 1010.8 |
| 20260510015056 | 50 | 111 | 0.0 | 0.0 | 0.00 | 0.16 | 0.16 | 96 | 1010.8 |
| 20260510014956 | 50 | 111 | 0.0 | 0.0 | 0.00 | 0.16 | 0.16 | 96 | 1010.7 |
| 20260510014853 | 50 | 111 | 0.0 | 0.0 | 0.00 | 0.16 | 0.16 | 96 | 1010.7 |
| 20260510014809 | 50 | 111 | 0.0 | 0.0 | 0.00 | 0.16 | 0.16 | 96 | 1010.7 |
| 20260510014553 | 50 | 111 | 0.0 | 0.0 | 0.00 | 0.16 | 0.16 | 95 | 1010.6 |
| 20260510014452 | 50 | 111 | 0.0 | 0.0 | 0.00 | 0.16 | 0.16 | 96 | 1010.7 |
| 20260510014350 | 50 | 111 | 0.0 | 0.0 | 0.00 | 0.16 | 0.16 | 96 | 1010.7 |
| 20260510014250 | 50 | 111 | 0.0 | 0.0 | 0.00 | 0.16 | 0.16 | 96 | 1010.7 |
| 20260510014151 | 50 | 111 | 0.0 | 0.0 | 0.00 | 0.16 | 0.16 | 96 | 1010.6 |
| 20260510014048 | 50 | 111 | 0.0 | 0.0 | 0.00 | 0.16 | 0.16 | 96 | 1010.7 |
| 20260510013949 | 50 | 111 | 0.0 | 0.0 | 0.00 | 0.16 | 0.16 | 95 | 1010.6 |
| 20260510013847 | 50 | 111 | 0.0 | 0.0 | 0.00 | 0.16 | 0.16 | 95 | 1010.6 |
| 20260510013747 | 50 | 111 | 0.0 | 0.0 | 0.00 | 0.16 | 0.16 | 95 | 1010.6 |
| 20260510013647 | 50 | 111 | 0.0 | 0.0 | 0.00 | 0.16 | 0.16 | 95 | 1010.6 |
| 20260510013546 | 50 | 111 | 0.0 | 0.0 | 0.00 | 0.16 | 0.16 | 96 | 1010.6 |
| 20260510013445 | 50 | 111 | 0.0 | 0.0 | 0.00 | 0.16 | 0.16 | 96 | 1010.6 |
| 20260510013359 | 50 | 111 | 0.0 | 0.0 | 0.00 | 0.16 | 0.16 | 96 | 1010.6 |
| 20260510013143 | 50 | 111 | 0.0 | 0.0 | 0.00 | 0.16 | 0.16 | 96 | 1010.6 |
| 20260510013044 | 50 | 111 | 0.0 | 0.0 | 0.00 | 0.16 | 0.16 | 95 | 1010.7 |
| 20260510012944 | 51 | 111 | 0.0 | 0.0 | 0.00 | 0.16 | 0.16 | 95 | 1010.7 |
| 20260510012900 | 51 | 111 | 0.0 | 0.0 | 0.00 | 0.16 | 0.16 | 95 | 1010.7 |
| 20260510012641 | 51 | 111 | 0.0 | 0.0 | 0.00 | 0.16 | 0.16 | 95 | 1010.7 |
| 20260510012539 | 51 | 111 | 0.0 | 0.0 | 0.00 | 0.16 | 0.16 | 95 | 1010.7 |
| 20260510012440 | 51 | 111 | 0.0 | 0.0 | 0.00 | 0.16 | 0.16 | 95 | 1010.7 |
| 20260510012340 | 51 | 111 | 0.0 | 0.0 | 0.00 | 0.16 | 0.16 | 95 | 1010.7 |
| 20260510012238 | 51 | 111 | 0.0 | 0.0 | 0.00 | 0.16 | 0.16 | 95 | 1010.7 |
| 20260510012139 | 51 | 111 | 0.0 | 0.0 | 0.00 | 0.16 | 0.16 | 96 | 1010.7 |
| 20260510012036 | 51 | 111 | 0.0 | 0.0 | 0.00 | 0.16 | 0.16 | 96 | 1010.7 |
| 20260510011935 | 51 | 111 | 0.0 | 0.0 | 0.00 | 0.16 | 0.16 | 96 | 1010.7 |
| 20260510011834 | 51 | 111 | 0.0 | 0.0 | 0.00 | 0.16 | 0.16 | 96 | 1010.7 |
| 20260510011733 | 51 | 111 | 0.0 | 0.0 | 0.00 | 0.16 | 0.16 | 96 | 1010.7 |
| 20260510011646 | 51 | 111 | 0.0 | 0.0 | 0.00 | 0.16 | 0.16 | 96 | 1010.7 |
| 20260510011500 | 51 | 111 | 0.0 | 0.0 | 0.00 | 0.16 | 0.16 | 95 | 1010.6 |
| 20260510011129 | 51 | 111 | 0.0 | 0.0 | 0.00 | 0.16 | 0.16 | 95 | 1010.5 |
| 20260510011028 | 51 | 111 | 0.0 | 0.0 | 0.00 | 0.16 | 0.16 | 95 | 1010.5 |
| 20260510010927 | 51 | 111 | 0.0 | 0.0 | 0.00 | 0.16 | 0.16 | 95 | 1010.5 |
| 20260510010828 | 51 | 111 | 0.0 | 0.0 | 0.00 | 0.16 | 0.16 | 95 | 1010.5 |
| 20260510010724 | 51 | 111 | 0.0 | 0.0 | 0.00 | 0.16 | 0.16 | 95 | 1010.5 |
| 20260510010626 | 51 | 111 | 0.0 | 0.0 | 0.00 | 0.16 | 0.16 | 95 | 1010.5 |
| 20260510010539 | 51 | 111 | 0.0 | 0.0 | 0.00 | 0.16 | 0.16 | 95 | 1010.5 |
| 20260510010324 | 51 | 111 | 0.0 | 0.0 | 0.00 | 0.16 | 0.16 | 95 | 1010.5 |
| 20260510010222 | 52 | 111 | 0.0 | 0.0 | 0.00 | 0.16 | 0.16 | 95 | 1010.4 |
| 20260510010120 | 52 | 111 | 0.0 | 0.0 | 0.00 | 0.16 | 0.16 | 95 | 1010.5 |
| 20260510010018 | 52 | 111 | 0.0 | 0.0 | 0.00 | 0.16 | 0.16 | 95 | 1010.4 |
| 20260510005920 | 52 | 111 | 0.0 | 0.0 | 0.00 | 0.16 | 0.16 | 95 | 1010.5 |
| 20260510005818 | 52 | 111 | 0.0 | 0.0 | 0.00 | 0.16 | 0.16 | 95 | 1010.4 |
| 20260510005734 | 52 | 111 | 0.0 | 0.0 | 0.00 | 0.16 | 0.16 | 95 | 1010.3 |
| 20260510005516 | 52 | 111 | 0.0 | 0.0 | 0.00 | 0.16 | 0.16 | 95 | 1010.3 |
| 20260510005444 | 52 | 111 | 0.0 | 0.0 | 0.00 | 0.16 | 0.16 | 95 | 1010.3 |
| 20260510005114 | 52 | 111 | 0.0 | 0.0 | 0.00 | 0.16 | 0.16 | 95 | 1010.3 |
| 20260510005012 | 52 | 111 | 0.0 | 0.0 | 0.00 | 0.16 | 0.16 | 95 | 1010.2 |
| 20260510004911 | 52 | 111 | 0.0 | 0.0 | 0.00 | 0.16 | 0.16 | 95 | 1010.1 |
| 20260510004811 | 52 | 111 | 0.0 | 0.0 | 0.00 | 0.16 | 0.16 | 95 | 1010.1 |
| 20260510004709 | 52 | 111 | 0.0 | 0.0 | 0.00 | 0.16 | 0.16 | 95 | 1010.1 |
| 20260510004609 | 52 | 111 | 0.0 | 0.0 | 0.00 | 0.16 | 0.16 | 95 | 1010.1 |
| 20260510004521 | 52 | 111 | 0.0 | 0.0 | 0.00 | 0.16 | 0.16 | 95 | 1010.1 |
| 20260510004307 | 52 | 111 | 0.0 | 0.0 | 0.00 | 0.16 | 0.16 | 95 | 1010.0 |
| 20260510004205 | 52 | 111 | 0.0 | 0.0 | 0.00 | 0.16 | 0.16 | 95 | 1010.0 |
| 20260510004106 | 53 | 111 | 0.0 | 0.0 | 0.00 | 0.16 | 0.16 | 95 | 1010.1 |
| 20260510004002 | 53 | 111 | 0.0 | 0.0 | 0.00 | 0.16 | 0.16 | 95 | 1010.1 |
| 20260510003903 | 53 | 111 | 0.0 | 0.0 | 0.00 | 0.16 | 0.16 | 95 | 1010.0 |
| 20260510003801 | 53 | 111 | 0.0 | 0.0 | 0.00 | 0.16 | 0.16 | 95 | 1010.0 |
| 20260510003701 | 53 | 111 | 0.0 | 0.0 | 0.00 | 0.16 | 0.16 | 95 | 1010.0 |
| 20260510003600 | 53 | 111 | 0.0 | 0.0 | 0.00 | 0.16 | 0.16 | 95 | 1010.0 |
| 20260510003502 | 53 | 111 | 0.0 | 0.0 | 0.00 | 0.16 | 0.16 | 95 | 1010.0 |
| 20260510003401 | 53 | 111 | 0.0 | 0.0 | 0.00 | 0.16 | 0.16 | 95 | 1010.0 |
| 20260510003302 | 53 | 111 | 0.0 | 0.0 | 0.00 | 0.16 | 0.16 | 95 | 1010.0 |
| 20260510003200 | 53 | 111 | 0.0 | 0.0 | 0.00 | 0.16 | 0.16 | 95 | 1010.0 |
| 20260510003103 | 53 | 111 | 0.0 | 0.0 | 0.00 | 0.16 | 0.16 | 95 | 1010.0 |
| 20260510002959 | 53 | 111 | 0.0 | 0.0 | 0.00 | 0.16 | 0.16 | 95 | 1009.9 |
| 20260510002859 | 53 | 111 | 0.0 | 0.0 | 0.00 | 0.16 | 0.16 | 95 | 1009.9 |
| 20260510002758 | 53 | 111 | 0.0 | 0.0 | 0.00 | 0.16 | 0.16 | 95 | 1009.9 |
| 20260510002656 | 53 | 111 | 0.0 | 0.0 | 0.00 | 0.16 | 0.16 | 95 | 1009.9 |
| 20260510002557 | 53 | 111 | 0.0 | 0.0 | 0.00 | 0.16 | 0.16 | 95 | 1009.9 |
| 20260510002455 | 53 | 111 | 0.0 | 0.0 | 0.00 | 0.16 | 0.16 | 95 | 1009.9 |
| 20260510002409 | 53 | 111 | 0.0 | 0.0 | 0.00 | 0.16 | 0.16 | 95 | 1009.9 |
| 20260510002154 | 53 | 111 | 0.0 | 0.0 | 0.00 | 0.16 | 0.16 | 95 | 1009.9 |
| 20260510002052 | 53 | 111 | 0.0 | 0.0 | 0.00 | 0.16 | 0.16 | 95 | 1009.9 |
| 20260510001951 | 53 | 111 | 0.0 | 0.0 | 0.00 | 0.16 | 0.16 | 95 | 1009.9 |
| 20260510001850 | 53 | 111 | 0.0 | 0.0 | 0.00 | 0.16 | 0.16 | 95 | 1009.9 |
| 20260510001749 | 53 | 111 | 0.0 | 0.0 | 0.00 | 0.16 | 0.16 | 95 | 1010.0 |
| 20260510001649 | 53 | 111 | 0.0 | 0.0 | 0.00 | 0.16 | 0.16 | 95 | 1010.0 |
| 20260510001602 | 53 | 111 | 0.0 | 0.0 | 0.00 | 0.16 | 0.16 | 95 | 1009.9 |
| 20260510001404 | 53 | 111 | 0.0 | 0.0 | 0.00 | 0.16 | 0.16 | 95 | 1010.0 |
| 20260510001145 | 54 | 111 | 0.0 | 0.0 | 0.00 | 0.16 | 0.16 | 95 | 1010.1 |
| 20260510001045 | 54 | 111 | 0.0 | 0.0 | 0.00 | 0.16 | 0.16 | 95 | 1010.1 |
| 20260510000944 | 54 | 111 | 0.0 | 0.0 | 0.00 | 0.16 | 0.16 | 95 | 1010.1 |
| 20260510000842 | 54 | 111 | 0.0 | 0.0 | 0.00 | 0.16 | 0.16 | 95 | 1010.1 |
| 20260510000742 | 54 | 111 | 0.0 | 0.0 | 0.00 | 0.16 | 0.16 | 95 | 1010.1 |
| 20260510000640 | 54 | 111 | 0.0 | 0.0 | 0.00 | 0.16 | 0.16 | 95 | 1010.1 |
| 20260510000539 | 54 | 111 | 0.0 | 0.0 | 0.00 | 0.16 | 0.16 | 95 | 1010.1 |
| 20260510000440 | 54 | 111 | 0.0 | 0.0 | 0.00 | 0.16 | 0.16 | 95 | 1010.1 |
| 20260510000341 | 54 | 111 | 0.0 | 0.0 | 0.00 | 0.16 | 0.16 | 95 | 1010.1 |
| 20260510000236 | 54 | 111 | 0.0 | 0.0 | 0.00 | 0.16 | 0.16 | 95 | 1010.1 |
| 20260510000137 | 54 | 111 | 0.0 | 0.0 | 0.00 | 0.16 | 0.16 | 95 | 1010.1 |
| 20260510000038 | 54 | 111 | 0.0 | 0.0 | 0.00 | 0.16 | 0.16 | 95 | 1010.1 |
| 20260509235935 | 54 | 111 | 0.0 | 0.0 | 0.00 | 0.16 | 0.16 | 95 | 1010.1 |
| 20260509235837 | 54 | 111 | 0.0 | 0.0 | 0.00 | 0.16 | 0.16 | 95 | 1010.1 |
| 20260509235803 | 54 | 111 | 0.0 | 0.0 | 0.00 | 0.16 | 0.16 | 95 | 1010.1 |
| 20260509235448 | 54 | 111 | 0.0 | 0.0 | 0.00 | 0.16 | 0.16 | 95 | 1010.2 |
| 20260509235230 | 54 | 111 | 0.0 | 0.0 | 0.00 | 0.16 | 0.16 | 95 | 1010.2 |
| 20260509235145 | 54 | 111 | 0.0 | 0.0 | 0.00 | 0.16 | 0.16 | 95 | 1010.1 |
| 20260509234926 | 54 | 111 | 0.0 | 0.0 | 0.00 | 0.16 | 0.16 | 95 | 1010.1 |
| 20260509234828 | 54 | 111 | 0.0 | 0.0 | 0.00 | 0.16 | 0.16 | 95 | 1010.1 |
| 20260509234725 | 54 | 111 | 0.0 | 0.0 | 0.00 | 0.16 | 0.16 | 95 | 1010.0 |
| 20260509234624 | 55 | 111 | 0.0 | 0.0 | 0.00 | 0.16 | 0.16 | 95 | 1010.0 |
| 20260509234526 | 54 | 111 | 0.0 | 0.0 | 0.00 | 0.16 | 0.16 | 95 | 1009.9 |
| 20260509234425 | 55 | 111 | 0.0 | 0.0 | 0.00 | 0.16 | 0.16 | 95 | 1010.0 |
| 20260509234336 | 55 | 111 | 0.0 | 0.0 | 0.00 | 0.16 | 0.16 | 95 | 1009.9 |
| 20260509234122 | 55 | 111 | 0.0 | 0.0 | 0.00 | 0.16 | 0.16 | 96 | 1009.9 |
| 20260509234020 | 55 | 111 | 0.0 | 0.0 | 0.00 | 0.16 | 0.16 | 95 | 1009.9 |
| 20260509233921 | 55 | 111 | 0.0 | 0.0 | 0.00 | 0.16 | 0.16 | 95 | 1009.9 |
| 20260509233818 | 55 | 111 | 0.0 | 0.9 | 0.00 | 0.16 | 0.16 | 96 | 1009.9 |
| 20260509233719 | 55 | 111 | 0.0 | 0.9 | 0.00 | 0.16 | 0.16 | 96 | 1009.9 |
| 20260509233616 | 55 | 111 | 0.0 | 1.7 | 0.00 | 0.16 | 0.16 | 96 | 1009.9 |
| 20260509233518 | 55 | 111 | 0.0 | 1.7 | 0.00 | 0.16 | 0.16 | 96 | 1009.9 |
| 20260509233414 | 55 | 111 | 0.0 | 1.7 | 0.00 | 0.16 | 0.16 | 96 | 1009.9 |
| 20260509233315 | 55 | 111 | 0.0 | 1.7 | 0.00 | 0.16 | 0.16 | 96 | 1009.9 |
| 20260509233214 | 55 | 111 | 0.0 | 1.7 | 0.00 | 0.16 | 0.16 | 96 | 1009.9 |
| 20260509233113 | 55 | 111 | 0.0 | 1.7 | 0.00 | 0.16 | 0.16 | 96 | 1009.8 |
| 20260509233012 | 55 | 111 | 0.0 | 1.7 | 0.00 | 0.16 | 0.16 | 96 | 1009.9 |
| 20260509232912 | 55 | 111 | 0.0 | 1.7 | 0.00 | 0.16 | 0.16 | 96 | 1009.8 |
| 20260509232811 | 55 | 111 | 0.0 | 1.7 | 0.00 | 0.16 | 0.16 | 96 | 1009.9 |
| 20260509232724 | 55 | 111 | 0.9 | 1.7 | 0.00 | 0.16 | 0.16 | 96 | 1009.9 |
| 20260509232510 | 55 | 111 | 0.0 | 1.7 | 0.00 | 0.16 | 0.16 | 96 | 1009.8 |
| 20260509232408 | 55 | 111 | 0.9 | 2.6 | 0.00 | 0.16 | 0.16 | 96 | 1009.8 |
| 20260509232306 | 55 | 111 | 0.9 | 2.6 | 0.00 | 0.16 | 0.16 | 96 | 1009.8 |
| 20260509232220 | 55 | 111 | 0.9 | 2.6 | 0.00 | 0.16 | 0.16 | 96 | 1009.7 |
| 20260509232005 | 55 | 111 | 0.9 | 2.6 | 0.00 | 0.16 | 0.16 | 96 | 1009.7 |
| 20260509231917 | 55 | 111 | 0.9 | 2.6 | 0.00 | 0.16 | 0.16 | 96 | 1009.7 |
| 20260509231701 | 55 | 111 | 0.9 | 2.6 | 0.00 | 0.16 | 0.16 | 96 | 1009.7 |
| 20260509231635 | 55 | 111 | 0.9 | 2.6 | 0.00 | 0.16 | 0.16 | 96 | 1009.7 |
| 20260509231301 | 55 | 111 | 0.0 | 2.6 | 0.00 | 0.16 | 0.16 | 96 | 1009.7 |
| 20260509231214 | 55 | 112 | 0.0 | 2.6 | 0.00 | 0.16 | 0.16 | 96 | 1009.7 |
| 20260509230959 | 55 | 112 | 0.0 | 2.6 | 0.00 | 0.16 | 0.16 | 96 | 1009.8 |
| 20260509230859 | 55 | 109 | 0.0 | 2.6 | 0.00 | 0.16 | 0.16 | 96 | 1009.8 |
| 20260509230756 | 55 | 109 | 0.0 | 2.6 | 0.00 | 0.16 | 0.16 | 96 | 1009.8 |
| 20260509230657 | 55 | 109 | 0.0 | 2.6 | 0.00 | 0.16 | 0.16 | 96 | 1009.8 |
| 20260509230556 | 55 | 109 | 0.0 | 3.5 | 0.00 | 0.16 | 0.16 | 96 | 1009.8 |
| 20260509230455 | 55 | 109 | 0.0 | 3.5 | 0.00 | 0.16 | 0.16 | 96 | 1009.8 |
| 20260509230356 | 55 | 109 | 0.9 | 3.5 | 0.00 | 0.16 | 0.16 | 96 | 1009.8 |
| 20260509230253 | 55 | 109 | 0.9 | 3.5 | 0.00 | 0.16 | 0.16 | 96 | 1009.8 |
| 20260509230207 | 55 | 109 | 0.9 | 3.5 | 0.00 | 0.16 | 0.16 | 96 | 1009.8 |
| 20260509225950 | 55 | 109 | 0.9 | 3.5 | 0.00 | 0.16 | 0.16 | 96 | 1009.8 |
| 20260509225851 | 55 | 109 | 0.9 | 3.5 | 0.00 | 0.16 | 0.16 | 96 | 1009.8 |
| 20260509225804 | 55 | 109 | 0.9 | 3.5 | 0.00 | 0.16 | 0.16 | 96 | 1009.9 |
| 20260509225546 | 55 | 109 | 0.9 | 3.5 | 0.00 | 0.16 | 0.16 | 96 | 1009.8 |
| 20260509225519 | 55 | 109 | 0.9 | 3.5 | 0.00 | 0.16 | 0.16 | 96 | 1009.8 |
| 20260509225148 | 55 | 109 | 0.9 | 3.5 | 0.00 | 0.16 | 0.16 | 96 | 1009.8 |
| 20260509225048 | 55 | 109 | 0.9 | 3.5 | 0.00 | 0.16 | 0.16 | 96 | 1009.8 |
| 20260509224946 | 55 | 109 | 0.9 | 3.5 | 0.00 | 0.16 | 0.16 | 96 | 1009.8 |
| 20260509224846 | 55 | 117 | 1.7 | 3.5 | 0.00 | 0.16 | 0.16 | 96 | 1009.8 |
| 20260509224746 | 55 | 117 | 1.7 | 3.5 | 0.00 | 0.16 | 0.16 | 96 | 1009.8 |
| 20260509224644 | 55 | 116 | 1.7 | 3.5 | 0.00 | 0.16 | 0.16 | 96 | 1009.8 |
| 20260509224542 | 55 | 121 | 1.7 | 3.5 | 0.00 | 0.16 | 0.16 | 96 | 1009.8 |
| 20260509224444 | 55 | 122 | 0.9 | 3.5 | 0.00 | 0.16 | 0.16 | 96 | 1009.8 |
| 20260509224342 | 55 | 122 | 1.7 | 3.5 | 0.00 | 0.16 | 0.16 | 96 | 1009.8 |
| 20260509224240 | 55 | 122 | 1.7 | 3.5 | 0.00 | 0.16 | 0.16 | 96 | 1009.8 |
| 20260509224140 | 55 | 122 | 1.7 | 3.5 | 0.00 | 0.16 | 0.16 | 96 | 1009.8 |
| 20260509224038 | 55 | 122 | 1.7 | 3.5 | 0.00 | 0.16 | 0.16 | 96 | 1009.8 |
| 20260509223938 | 55 | 128 | 1.7 | 3.5 | 0.00 | 0.16 | 0.16 | 95 | 1009.8 |
| 20260509223839 | 55 | 111 | 1.7 | 3.5 | 0.00 | 0.16 | 0.16 | 95 | 1009.9 |
| 20260509223737 | 55 | 111 | 1.7 | 3.5 | 0.00 | 0.16 | 0.16 | 95 | 1009.9 |
| 20260509223638 | 55 | 111 | 1.7 | 3.5 | 0.00 | 0.16 | 0.16 | 95 | 1009.9 |
| 20260509223535 | 55 | 115 | 1.7 | 3.5 | 0.00 | 0.16 | 0.16 | 95 | 1009.9 |
| 20260509223434 | 55 | 115 | 1.7 | 3.5 | 0.00 | 0.16 | 0.16 | 95 | 1009.9 |
| 20260509223334 | 55 | 115 | 0.9 | 3.5 | 0.00 | 0.16 | 0.16 | 95 | 1009.9 |
| 20260509223232 | 55 | 130 | 0.9 | 3.5 | 0.00 | 0.16 | 0.16 | 95 | 1010.0 |
| 20260509223133 | 55 | 130 | 0.9 | 3.5 | 0.00 | 0.16 | 0.16 | 96 | 1010.0 |
| 20260509223031 | 55 | 117 | 0.9 | 2.6 | 0.00 | 0.16 | 0.16 | 95 | 1010.0 |
| 20260509222932 | 55 | 117 | 0.9 | 2.6 | 0.00 | 0.16 | 0.16 | 95 | 1010.1 |
| 20260509222831 | 55 | 117 | 0.0 | 2.6 | 0.00 | 0.16 | 0.16 | 95 | 1010.1 |
| 20260509222732 | 55 | 117 | 0.0 | 2.6 | 0.00 | 0.16 | 0.16 | 96 | 1010.2 |
| 20260509222646 | 55 | 118 | 0.0 | 2.6 | 0.00 | 0.16 | 0.16 | 96 | 1010.2 |
| 20260509222432 | 55 | 111 | 0.0 | 0.0 | 0.00 | 0.16 | 0.16 | 96 | 1010.2 |
| 20260509222328 | 55 | 111 | 0.0 | 0.0 | 0.00 | 0.16 | 0.16 | 96 | 1010.2 |
| 20260509222230 | 55 | 111 | 0.0 | 0.0 | 0.00 | 0.16 | 0.16 | 96 | 1010.2 |
| 20260509222129 | 55 | 111 | 0.0 | 0.0 | 0.00 | 0.16 | 0.16 | 96 | 1010.2 |
| 20260509222027 | 55 | 111 | 0.0 | 0.0 | 0.00 | 0.16 | 0.16 | 96 | 1010.2 |
| 20260509221954 | 55 | 111 | 0.0 | 0.0 | 0.00 | 0.16 | 0.16 | 96 | 1010.2 |
| 20260509221637 | 55 | 111 | 0.0 | 0.0 | 0.01 | 0.16 | 0.16 | 96 | 1010.2 |
| 20260509221424 | 55 | 111 | 0.0 | 0.0 | 0.01 | 0.16 | 0.16 | 96 | 1010.1 |
| 20260509221320 | 55 | 111 | 0.0 | 0.0 | 0.01 | 0.16 | 0.16 | 96 | 1010.1 |
| 20260509221221 | 55 | 111 | 0.0 | 0.9 | 0.01 | 0.16 | 0.16 | 96 | 1010.1 |
| 20260509221120 | 55 | 111 | 0.0 | 1.7 | 0.01 | 0.16 | 0.16 | 96 | 1010.1 |
| 20260509221019 | 55 | 111 | 0.0 | 2.6 | 0.01 | 0.16 | 0.16 | 96 | 1010.1 |
| 20260509220918 | 55 | 111 | 0.0 | 2.6 | 0.02 | 0.16 | 0.16 | 96 | 1010.1 |
| 20260509220818 | 55 | 111 | 0.9 | 2.6 | 0.02 | 0.16 | 0.16 | 96 | 1010.1 |
| 20260509220732 | 55 | 111 | 0.9 | 2.6 | 0.02 | 0.16 | 0.16 | 96 | 1010.1 |
| 20260509220517 | 55 | 111 | 0.9 | 2.6 | 0.02 | 0.16 | 0.16 | 96 | 1010.1 |
| 20260509220416 | 55 | 111 | 0.9 | 2.6 | 0.02 | 0.16 | 0.16 | 96 | 1010.1 |
| 20260509220313 | 55 | 111 | 0.9 | 2.6 | 0.02 | 0.16 | 0.16 | 96 | 1010.1 |
| 20260509220228 | 55 | 111 | 0.9 | 2.6 | 0.03 | 0.16 | 0.16 | 96 | 1010.1 |
| 20260509220011 | 55 | 111 | 0.9 | 2.6 | 0.03 | 0.16 | 0.16 | 96 | 1010.2 |
| 20260509215912 | 55 | 111 | 0.9 | 2.6 | 0.03 | 0.16 | 0.16 | 96 | 1010.1 |
| 20260509215809 | 55 | 111 | 0.0 | 2.6 | 0.03 | 0.16 | 0.16 | 96 | 1010.1 |
| 20260509215710 | 55 | 111 | 0.0 | 1.7 | 0.03 | 0.16 | 0.16 | 96 | 1010.1 |
| 20260509215609 | 55 | 111 | 0.0 | 1.7 | 0.03 | 0.16 | 0.16 | 96 | 1010.1 |
| 20260509215525 | 55 | 111 | 0.9 | 3.5 | 0.03 | 0.16 | 0.16 | 96 | 1010.1 |
| 20260509215309 | 55 | 111 | 0.9 | 3.5 | 0.03 | 0.16 | 0.16 | 96 | 1010.0 |
| 20260509215208 | 55 | 111 | 0.9 | 3.5 | 0.03 | 0.16 | 0.16 | 96 | 1010.1 |
| 20260509215109 | 55 | 111 | 0.9 | 3.5 | 0.03 | 0.16 | 0.16 | 96 | 1010.1 |
| 20260509215035 | 55 | 111 | 1.7 | 3.5 | 0.03 | 0.16 | 0.16 | 96 | 1010.1 |
| 20260509214719 | 55 | 111 | 1.7 | 3.5 | 0.04 | 0.16 | 0.16 | 96 | 1010.1 |
| 20260509214504 | 55 | 108 | 1.7 | 3.5 | 0.04 | 0.16 | 0.16 | 95 | 1010.1 |
| 20260509214402 | 54 | 111 | 1.7 | 3.5 | 0.04 | 0.16 | 0.16 | 95 | 1010.1 |
| 20260509214303 | 54 | 107 | 1.7 | 3.5 | 0.04 | 0.16 | 0.16 | 95 | 1010.1 |
| 20260509214205 | 54 | 106 | 0.9 | 3.5 | 0.04 | 0.16 | 0.16 | 95 | 1010.1 |
| 20260509214103 | 54 | 102 | 0.9 | 3.5 | 0.04 | 0.16 | 0.16 | 95 | 1010.1 |
| 20260509214002 | 54 | 102 | 0.9 | 3.5 | 0.04 | 0.16 | 0.16 | 95 | 1010.2 |
| 20260509213903 | 54 | 103 | 0.9 | 3.5 | 0.04 | 0.16 | 0.16 | 95 | 1010.1 |
| 20260509213819 | 54 | 103 | 0.9 | 3.5 | 0.04 | 0.16 | 0.16 | 95 | 1010.2 |
| 20260509213605 | 54 | 179 | 0.9 | 2.6 | 0.04 | 0.16 | 0.16 | 95 | 1010.3 |
| 20260509213504 | 54 | 188 | 0.9 | 2.6 | 0.05 | 0.16 | 0.16 | 95 | 1010.4 |
| 20260509213403 | 54 | 188 | 0.9 | 2.6 | 0.05 | 0.16 | 0.16 | 95 | 1010.4 |
| 20260509213301 | 54 | 188 | 0.9 | 2.6 | 0.05 | 0.16 | 0.16 | 95 | 1010.4 |
| 20260509213201 | 54 | 208 | 0.9 | 2.6 | 0.05 | 0.16 | 0.16 | 95 | 1010.3 |
| 20260509213114 | 54 | 208 | 0.9 | 2.6 | 0.05 | 0.16 | 0.16 | 95 | 1010.3 |
| 20260509212927 | 54 | 208 | 0.9 | 2.6 | 0.06 | 0.16 | 0.16 | 95 | 1010.3 |
| 20260509212557 | 54 | 208 | 0.9 | 2.6 | 0.06 | 0.16 | 0.16 | 95 | 1010.1 |
| 20260509212457 | 54 | 242 | 0.9 | 2.6 | 0.06 | 0.16 | 0.16 | 95 | 1010.1 |
| 20260509212413 | 54 | 242 | 0.0 | 2.6 | 0.06 | 0.16 | 0.16 | 95 | 1010.1 |
| 20260509212157 | 54 | 244 | 0.0 | 2.6 | 0.06 | 0.16 | 0.16 | 95 | 1010.1 |
| 20260509212111 | 54 | 248 | 0.0 | 0.0 | 0.06 | 0.16 | 0.16 | 95 | 1010.2 |
| 20260509211908 | 54 | 248 | 0.0 | 0.0 | 0.06 | 0.16 | 0.16 | 95 | 1010.2 |
| 20260509211654 | 54 | 248 | 0.0 | 0.0 | 0.06 | 0.16 | 0.16 | 95 | 1010.1 |
| 20260509211552 | 54 | 248 | 0.0 | 0.0 | 0.05 | 0.15 | 0.16 | 95 | 1010.2 |
| 20260509211448 | 55 | 248 | 0.0 | 1.7 | 0.05 | 0.15 | 0.15 | 95 | 1010.1 |
| 20260509211349 | 55 | 248 | 0.0 | 1.7 | 0.05 | 0.15 | 0.15 | 95 | 1010.0 |
| 20260509211305 | 55 | 248 | 0.0 | 1.7 | 0.05 | 0.15 | 0.15 | 95 | 1010.1 |
| 20260509211048 | 55 | 248 | 0.9 | 1.7 | 0.05 | 0.15 | 0.15 | 95 | 1010.2 |
| 20260509211017 | 55 | 248 | 0.9 | 1.7 | 0.05 | 0.14 | 0.14 | 95 | 1010.2 |
| 20260509210713 | 55 | 248 | 0.9 | 1.7 | 0.05 | 0.14 | 0.14 | 95 | 1010.1 |
| 20260509210341 | 55 | 248 | 0.9 | 1.7 | 0.05 | 0.14 | 0.14 | 95 | 1010.0 |
| 20260509210241 | 55 | 248 | 0.9 | 1.7 | 0.04 | 0.13 | 0.13 | 95 | 1010.0 |
| 20260509210142 | 55 | 248 | 0.9 | 1.7 | 0.04 | 0.13 | 0.13 | 95 | 1009.9 |
| 20260509210039 | 55 | 248 | 0.9 | 1.7 | 0.04 | 0.13 | 0.13 | 95 | 1009.9 |
| 20260509205939 | 55 | 248 | 0.9 | 1.7 | 0.04 | 0.13 | 0.13 | 95 | 1010.1 |
| 20260509205837 | 55 | 248 | 0.9 | 1.7 | 0.04 | 0.13 | 0.13 | 95 | 1010.1 |
| 20260509205737 | 55 | 248 | 0.0 | 1.7 | 0.04 | 0.13 | 0.13 | 95 | 1010.1 |
| 20260509205636 | 55 | 248 | 0.0 | 1.7 | 0.04 | 0.13 | 0.13 | 95 | 1010.1 |
| 20260509205534 | 55 | 248 | 0.0 | 1.7 | 0.04 | 0.13 | 0.13 | 95 | 1010.1 |
| 20260509205436 | 55 | 248 | 0.0 | 0.9 | 0.04 | 0.13 | 0.13 | 95 | 1010.2 |
| 20260509205333 | 55 | 248 | 0.0 | 0.0 | 0.04 | 0.13 | 0.13 | 95 | 1010.2 |
| 20260509205234 | 55 | 248 | 0.0 | 0.0 | 0.04 | 0.13 | 0.13 | 95 | 1010.3 |
| 20260509205131 | 55 | 248 | 0.0 | 0.0 | 0.05 | 0.13 | 0.13 | 95 | 1010.3 |
| 20260509205031 | 55 | 248 | 0.0 | 0.0 | 0.05 | 0.13 | 0.13 | 95 | 1010.3 |
| 20260509204931 | 55 | 248 | 0.0 | 0.0 | 0.05 | 0.13 | 0.13 | 95 | 1010.3 |
| 20260509204829 | 55 | 248 | 0.0 | 0.0 | 0.04 | 0.12 | 0.12 | 95 | 1010.2 |
| 20260509204729 | 55 | 248 | 0.0 | 0.0 | 0.04 | 0.12 | 0.12 | 94 | 1010.1 |
| 20260509204643 | 55 | 248 | 0.0 | 0.0 | 0.04 | 0.12 | 0.12 | 94 | 1010.1 |
| 20260509204427 | 55 | 248 | 0.0 | 0.0 | 0.04 | 0.12 | 0.12 | 94 | 1010.1 |
| 20260509204324 | 55 | 248 | 0.0 | 0.0 | 0.04 | 0.12 | 0.12 | 94 | 1010.1 |
| 20260509204225 | 55 | 248 | 0.0 | 0.0 | 0.04 | 0.12 | 0.12 | 94 | 1010.0 |
| 20260509204122 | 55 | 248 | 0.0 | 0.0 | 0.05 | 0.12 | 0.12 | 94 | 1010.0 |
| 20260509204023 | 55 | 248 | 0.0 | 0.0 | 0.05 | 0.12 | 0.12 | 94 | 1010.0 |
| 20260509203921 | 55 | 248 | 0.0 | 0.0 | 0.05 | 0.12 | 0.12 | 94 | 1009.9 |
| 20260509203821 | 55 | 248 | 0.0 | 0.0 | 0.05 | 0.12 | 0.12 | 94 | 1009.9 |
| 20260509203722 | 55 | 248 | 0.0 | 0.9 | 0.05 | 0.12 | 0.12 | 94 | 1009.9 |
| 20260509203621 | 55 | 248 | 0.0 | 0.9 | 0.05 | 0.12 | 0.12 | 94 | 1009.8 |
| 20260509203536 | 55 | 248 | 0.0 | 0.9 | 0.04 | 0.11 | 0.12 | 94 | 1009.8 |
| 20260509203317 | 55 | 248 | 0.0 | 0.9 | 0.05 | 0.11 | 0.11 | 94 | 1009.9 |
| 20260509203216 | 55 | 248 | 0.0 | 0.9 | 0.05 | 0.11 | 0.11 | 94 | 1010.0 |
| 20260509203116 | 55 | 248 | 0.0 | 1.7 | 0.05 | 0.11 | 0.11 | 94 | 1010.1 |
| 20260509203014 | 55 | 248 | 0.0 | 1.7 | 0.05 | 0.11 | 0.11 | 94 | 1010.1 |
| 20260509202929 | 55 | 248 | 0.0 | 1.7 | 0.06 | 0.11 | 0.11 | 94 | 1010.1 |
| 20260509202726 | 55 | 248 | 0.0 | 1.7 | 0.05 | 0.10 | 0.10 | 94 | 1010.1 |
| 20260509202511 | 55 | 248 | 0.0 | 2.6 | 0.05 | 0.10 | 0.10 | 94 | 1010.1 |
| 20260509202411 | 55 | 248 | 0.0 | 2.6 | 0.05 | 0.10 | 0.10 | 94 | 1010.1 |
| 20260509202308 | 55 | 248 | 0.9 | 2.6 | 0.05 | 0.10 | 0.10 | 94 | 1010.0 |
| 20260509202209 | 55 | 248 | 0.0 | 2.6 | 0.06 | 0.10 | 0.10 | 94 | 1010.0 |
| 20260509202106 | 55 | 248 | 0.9 | 2.6 | 0.06 | 0.10 | 0.10 | 94 | 1010.0 |
| 20260509202009 | 55 | 248 | 0.9 | 2.6 | 0.07 | 0.10 | 0.10 | 94 | 1010.1 |
| 20260509201904 | 55 | 248 | 0.9 | 2.6 | 0.07 | 0.10 | 0.10 | 94 | 1010.1 |
| 20260509201805 | 55 | 248 | 0.9 | 2.6 | 0.07 | 0.10 | 0.10 | 94 | 1010.1 |
| 20260509201705 | 55 | 248 | 0.0 | 2.6 | 0.07 | 0.10 | 0.10 | 94 | 1010.1 |
| 20260509201605 | 55 | 198 | 0.0 | 1.7 | 0.08 | 0.10 | 0.10 | 94 | 1010.2 |
| 20260509201505 | 55 | 198 | 0.0 | 1.7 | 0.08 | 0.10 | 0.10 | 94 | 1010.2 |
| 20260509201436 | 55 | 198 | 0.0 | 1.7 | 0.08 | 0.10 | 0.10 | 94 | 1010.2 |
| 20260509201105 | 55 | 196 | 0.0 | 1.7 | 0.08 | 0.10 | 0.10 | 94 | 1010.3 |
| 20260509201003 | 55 | 194 | 0.0 | 0.9 | 0.07 | 0.09 | 0.10 | 94 | 1010.2 |
| 20260509200900 | 55 | 194 | 0.0 | 0.9 | 0.07 | 0.09 | 0.09 | 94 | 1010.2 |
| 20260509200803 | 55 | 194 | 0.0 | 0.9 | 0.07 | 0.09 | 0.09 | 94 | 1010.2 |
| 20260509200702 | 55 | 194 | 0.0 | 0.9 | 0.07 | 0.09 | 0.09 | 94 | 1010.2 |
| 20260509200601 | 55 | 194 | 0.0 | 1.7 | 0.08 | 0.09 | 0.09 | 94 | 1010.2 |
| 20260509200457 | 55 | 194 | 0.0 | 1.7 | 0.08 | 0.09 | 0.09 | 94 | 1010.3 |
| 20260509200358 | 55 | 194 | 0.0 | 1.7 | 0.08 | 0.09 | 0.09 | 94 | 1010.3 |
| 20260509200257 | 55 | 194 | 0.0 | 1.7 | 0.08 | 0.09 | 0.09 | 94 | 1010.4 |
| 20260509200213 | 55 | 194 | 0.0 | 1.7 | 0.08 | 0.09 | 0.09 | 94 | 1010.5 |
| 20260509195946 | 55 | 194 | 0.0 | 1.7 | 0.08 | 0.09 | 0.09 | 94 | 1010.5 |
| 20260509195847 | 55 | 194 | 0.0 | 1.7 | 0.08 | 0.09 | 0.09 | 94 | 1010.4 |
| 20260509195747 | 55 | 194 | 0.0 | 1.7 | 0.08 | 0.09 | 0.09 | 94 | 1010.4 |
| 20260509195641 | 55 | 194 | 0.0 | 1.7 | 0.08 | 0.09 | 0.09 | 94 | 1010.5 |
| 20260509195543 | 55 | 182 | 0.0 | 0.9 | 0.08 | 0.09 | 0.09 | 94 | 1010.5 |
| 20260509195445 | 55 | 182 | 0.0 | 0.9 | 0.08 | 0.09 | 0.09 | 94 | 1010.6 |
| 20260509195343 | 55 | 182 | 0.0 | 0.0 | 0.08 | 0.09 | 0.09 | 94 | 1010.6 |
| 20260509195256 | 55 | 182 | 0.0 | 0.9 | 0.08 | 0.09 | 0.09 | 94 | 1010.6 |
| 20260509195039 | 55 | 182 | 0.0 | 2.6 | 0.07 | 0.08 | 0.08 | 93 | 1010.7 |
| 20260509194953 | 55 | 182 | 0.0 | 2.6 | 0.07 | 0.08 | 0.08 | 93 | 1010.7 |
| 20260509194738 | 55 | 182 | 0.0 | 2.6 | 0.07 | 0.08 | 0.08 | 93 | 1010.8 |
| 20260509194636 | 55 | 182 | 0.0 | 2.6 | 0.07 | 0.08 | 0.08 | 93 | 1010.8 |
| 20260509194536 | 55 | 182 | 0.0 | 2.6 | 0.07 | 0.08 | 0.08 | 93 | 1010.8 |
| 20260509194434 | 55 | 182 | 0.0 | 2.6 | 0.07 | 0.08 | 0.08 | 93 | 1010.8 |
| 20260509194335 | 55 | 182 | 0.0 | 2.6 | 0.07 | 0.08 | 0.08 | 93 | 1010.8 |
| 20260509194233 | 55 | 182 | 0.0 | 2.6 | 0.07 | 0.08 | 0.08 | 93 | 1010.8 |
| 20260509194132 | 55 | 177 | 0.0 | 2.6 | 0.06 | 0.07 | 0.07 | 93 | 1010.8 |
| 20260509194031 | 55 | 177 | 0.0 | 2.6 | 0.06 | 0.07 | 0.07 | 93 | 1010.8 |
| 20260509193931 | 55 | 177 | 0.0 | 2.6 | 0.06 | 0.07 | 0.07 | 93 | 1010.8 |
| 20260509193830 | 55 | 177 | 0.0 | 2.6 | 0.06 | 0.07 | 0.07 | 92 | 1010.8 |
| 20260509193729 | 55 | 177 | 0.0 | 2.6 | 0.06 | 0.07 | 0.07 | 93 | 1010.8 |
| 20260509193629 | 55 | 177 | 0.0 | 2.6 | 0.06 | 0.07 | 0.07 | 92 | 1010.8 |
| 20260509193528 | 55 | 177 | 0.0 | 2.6 | 0.06 | 0.07 | 0.07 | 92 | 1010.8 |
| 20260509193427 | 55 | 177 | 0.0 | 2.6 | 0.05 | 0.06 | 0.07 | 92 | 1010.8 |
| 20260509193326 | 55 | 177 | 0.0 | 2.6 | 0.05 | 0.06 | 0.06 | 92 | 1010.8 |
| 20260509193224 | 55 | 177 | 0.0 | 2.6 | 0.05 | 0.06 | 0.06 | 92 | 1010.8 |
| 20260509193124 | 55 | 252 | 0.0 | 1.7 | 0.05 | 0.06 | 0.06 | 92 | 1010.9 |
| 20260509193022 | 55 | 252 | 0.0 | 1.7 | 0.05 | 0.06 | 0.06 | 92 | 1010.9 |
| 20260509192923 | 55 | 252 | 0.0 | 1.7 | 0.04 | 0.05 | 0.06 | 92 | 1010.9 |
| 20260509192824 | 55 | 252 | 0.0 | 3.5 | 0.04 | 0.05 | 0.05 | 92 | 1010.9 |
| 20260509192721 | 55 | 252 | 0.0 | 3.5 | 0.04 | 0.05 | 0.05 | 91 | 1010.9 |
| 20260509192637 | 55 | 252 | 0.0 | 3.5 | 0.04 | 0.05 | 0.05 | 91 | 1010.9 |
| 20260509192505 | 55 | 252 | 0.0 | 3.5 | 0.04 | 0.05 | 0.05 | 91 | 1010.9 |
| 20260509192018 | 56 | 252 | 0.0 | 3.5 | 0.02 | 0.03 | 0.04 | 91 | 1010.8 |
| 20260509191917 | 56 | 252 | 0.0 | 3.5 | 0.02 | 0.03 | 0.03 | 91 | 1010.8 |
| 20260509191816 | 56 | 243 | 0.0 | 0.0 | 0.02 | 0.03 | 0.03 | 91 | 1010.9 |
| 20260509191716 | 56 | 243 | 0.0 | 0.0 | 0.02 | 0.03 | 0.03 | 91 | 1010.9 |
| 20260509191616 | 56 | 243 | 0.0 | 0.0 | 0.01 | 0.02 | 0.03 | 91 | 1010.9 |
| 20260509191515 | 56 | 243 | 0.0 | 0.0 | 0.01 | 0.02 | 0.02 | 91 | 1010.7 |
| 20260509191415 | 56 | 243 | 0.0 | 0.9 | 0.01 | 0.02 | 0.02 | 91 | 1010.6 |
| 20260509191329 | 56 | 243 | 0.0 | 0.9 | 0.01 | 0.02 | 0.02 | 90 | 1010.6 |
| 20260509191113 | 56 | 243 | 0.0 | 7.0 | 0.01 | 0.02 | 0.02 | 90 | 1010.7 |
| 20260509191011 | 56 | 243 | 0.0 | 7.0 | 0.01 | 0.02 | 0.02 | 90 | 1010.7 |
| 20260509190943 | 56 | 243 | 0.0 | 7.0 | 0.01 | 0.02 | 0.02 | 90 | 1010.7 |
| 20260509190608 | 56 | 243 | 0.0 | 7.0 | 0.01 | 0.01 | 0.02 | 89 | 1010.8 |
| 20260509190508 | 56 | 243 | 0.0 | 7.0 | 0.01 | 0.01 | 0.01 | 89 | 1010.8 |
| 20260509190419 | 56 | 243 | 0.0 | 7.0 | 0.01 | 0.01 | 0.01 | 89 | 1010.8 |
| 20260509190203 | 56 | 243 | 0.0 | 7.0 | 0.01 | 0.01 | 0.01 | 88 | 1010.8 |
| 20260509190105 | 56 | 263 | 0.0 | 2.6 | 0.01 | 0.01 | 0.01 | 89 | 1010.8 |
| 20260509190005 | 56 | 275 | 0.0 | 2.6 | 0.01 | 0.01 | 0.01 | 89 | 1010.8 |
| 20260509185905 | 56 | 275 | 0.0 | 2.6 | 0.01 | 0.01 | 0.01 | 89 | 1010.8 |
| 20260509185820 | 56 | 275 | 0.0 | 2.6 | 0.01 | 0.01 | 0.01 | 89 | 1010.7 |
| 20260509185604 | 56 | 278 | 0.0 | 2.6 | 0.01 | 0.01 | 0.01 | 88 | 1010.8 |
| 20260509185505 | 56 | 279 | 0.0 | 2.6 | 0.01 | 0.01 | 0.01 | 88 | 1010.7 |
| 20260509185404 | 56 | 284 | 0.0 | 2.6 | 0.01 | 0.01 | 0.01 | 89 | 1010.7 |
| 20260509185306 | 56 | 284 | 0.0 | 2.6 | 0.01 | 0.01 | 0.01 | 89 | 1010.7 |
| 20260509185205 | 56 | 284 | 0.0 | 2.6 | 0.01 | 0.01 | 0.01 | 89 | 1010.8 |
| 20260509185105 | 56 | 284 | 0.0 | 2.6 | 0.01 | 0.01 | 0.01 | 88 | 1010.8 |
| 20260509185005 | 56 | 284 | 0.0 | 2.6 | 0.01 | 0.01 | 0.01 | 88 | 1010.8 |
| 20260509184905 | 56 | 284 | 0.0 | 1.7 | 0.01 | 0.01 | 0.01 | 89 | 1010.8 |
| 20260509184803 | 56 | 284 | 0.0 | 0.9 | 0.01 | 0.01 | 0.01 | 89 | 1010.8 |
| 20260509184702 | 56 | 284 | 0.0 | 1.7 | 0.01 | 0.01 | 0.01 | 89 | 1010.8 |
| 20260509184601 | 57 | 284 | 0.0 | 1.7 | 0.01 | 0.01 | 0.01 | 89 | 1010.8 |
| 20260509184502 | 56 | 284 | 0.0 | 1.7 | 0.01 | 0.01 | 0.01 | 89 | 1010.8 |
| 20260509184414 | 56 | 284 | 0.0 | 1.7 | 0.01 | 0.01 | 0.01 | 89 | 1010.7 |
| 20260509184201 | 56 | 284 | 0.0 | 1.7 | 0.01 | 0.01 | 0.01 | 88 | 1010.6 |
| 20260509184059 | 56 | 284 | 0.0 | 1.7 | 0.01 | 0.01 | 0.01 | 88 | 1010.5 |
| 20260509184000 | 56 | 284 | 0.0 | 1.7 | 0.01 | 0.01 | 0.01 | 88 | 1010.5 |
| 20260509183859 | 56 | 284 | 0.0 | 1.7 | 0.01 | 0.01 | 0.01 | 88 | 1010.6 |
| 20260509183759 | 56 | 284 | 0.0 | 1.7 | 0.01 | 0.01 | 0.01 | 88 | 1010.6 |
| 20260509183658 | 56 | 284 | 0.0 | 2.6 | 0.01 | 0.01 | 0.01 | 88 | 1010.5 |
| 20260509183559 | 56 | 284 | 0.0 | 3.5 | 0.01 | 0.01 | 0.01 | 88 | 1010.5 |
| 20260509183500 | 56 | 284 | 0.0 | 3.5 | 0.01 | 0.01 | 0.01 | 88 | 1010.6 |
| 20260509183400 | 57 | 284 | 0.0 | 3.5 | 0.01 | 0.01 | 0.01 | 88 | 1010.5 |
| 20260509183300 | 56 | 284 | 0.0 | 3.5 | 0.01 | 0.01 | 0.01 | 88 | 1010.5 |
| 20260509183159 | 57 | 284 | 0.0 | 3.5 | 0.01 | 0.01 | 0.01 | 87 | 1010.7 |
| 20260509183059 | 57 | 284 | 0.9 | 3.5 | 0.01 | 0.01 | 0.01 | 87 | 1010.6 |
| 20260509182959 | 57 | 284 | 0.9 | 3.5 | 0.01 | 0.01 | 0.01 | 86 | 1010.6 |
| 20260509182858 | 57 | 284 | 0.9 | 3.5 | 0.01 | 0.01 | 0.01 | 86 | 1010.5 |
| 20260509182757 | 57 | 284 | 0.9 | 3.5 | 0.01 | 0.01 | 0.01 | 86 | 1010.5 |
| 20260509182658 | 57 | 265 | 0.9 | 3.5 | 0.01 | 0.01 | 0.01 | 87 | 1010.4 |
| 20260509182559 | 57 | 286 | 0.9 | 2.6 | 0.01 | 0.01 | 0.01 | 87 | 1010.3 |
| 20260509182458 | 57 | 286 | 0.0 | 2.6 | 0.01 | 0.01 | 0.01 | 87 | 1010.4 |
| 20260509182412 | 57 | 286 | 0.9 | 2.6 | 0.01 | 0.01 | 0.01 | 87 | 1010.3 |
| 20260509182157 | 57 | 286 | 0.9 | 2.6 | 0.01 | 0.01 | 0.01 | 86 | 1010.3 |
| 20260509182113 | 57 | 286 | 0.9 | 3.5 | 0.01 | 0.01 | 0.01 | 86 | 1010.4 |
| 20260509181913 | 57 | 242 | 0.9 | 7.0 | 0.01 | 0.01 | 0.01 | 86 | 1010.7 |
| 20260509181656 | 57 | 240 | 0.9 | 7.0 | 0.01 | 0.01 | 0.01 | 86 | 1010.9 |
| 20260509181557 | 57 | 240 | 0.9 | 7.0 | 0.01 | 0.01 | 0.01 | 85 | 1011.0 |
| 20260509181456 | 57 | 240 | 0.9 | 7.0 | 0.01 | 0.01 | 0.01 | 85 | 1011.0 |
| 20260509181357 | 57 | 240 | 0.9 | 7.0 | 0.01 | 0.01 | 0.01 | 84 | 1011.1 |
| 20260509181256 | 58 | 239 | 1.7 | 7.0 | 0.01 | 0.01 | 0.01 | 84 | 1011.1 |
| 20260509181156 | 58 | 239 | 0.9 | 7.0 | 0.01 | 0.01 | 0.01 | 84 | 1011.1 |
| 20260509181056 | 58 | 246 | 0.9 | 7.0 | 0.01 | 0.01 | 0.01 | 83 | 1011.0 |
| 20260509180956 | 58 | 311 | 0.9 | 7.0 | 0.01 | 0.01 | 0.01 | 84 | 1011.0 |
| 20260509180856 | 58 | 313 | 0.9 | 5.2 | 0.01 | 0.01 | 0.01 | 84 | 1011.1 |
| 20260509180756 | 58 | 261 | 0.9 | 5.2 | 0.01 | 0.01 | 0.01 | 83 | 1011.1 |
| 20260509180658 | 58 | 261 | 0.9 | 5.2 | 0.01 | 0.01 | 0.01 | 83 | 1011.1 |
| 20260509180556 | 58 | 261 | 0.9 | 5.2 | 0.00 | 0.00 | 0.01 | 82 | 1011.1 |
| 20260509180456 | 58 | 269 | 0.9 | 5.2 | 0.00 | 0.00 | 0.00 | 82 | 1011.2 |
| 20260509180428 | 58 | 271 | 0.9 | 5.2 | 0.00 | 0.00 | 0.00 | 82 | 1011.2 |
| 20260509180057 | 59 | 252 | 1.7 | 5.2 | 0.00 | 0.00 | 0.00 | 82 | 1011.2 |
| 20260509175956 | 59 | 246 | 1.7 | 5.2 | 0.00 | 0.00 | 0.00 | 81 | 1011.2 |
| 20260509175856 | 59 | 246 | 1.7 | 5.2 | 0.00 | 0.00 | 0.00 | 81 | 1011.2 |
| 20260509175812 | 59 | 264 | 1.7 | 4.3 | 0.00 | 0.00 | 0.00 | 81 | 1011.2 |
| 20260509175555 | 59 | 267 | 1.7 | 5.2 | 0.00 | 0.00 | 0.00 | 80 | 1011.2 |
| 20260509175456 | 60 | 269 | 1.7 | 5.2 | 0.00 | 0.00 | 0.00 | 80 | 1011.3 |
| 20260509175355 | 60 | 269 | 1.7 | 5.2 | 0.00 | 0.00 | 0.00 | 80 | 1011.2 |
| 20260509175257 | 60 | 242 | 1.7 | 5.2 | 0.00 | 0.00 | 0.00 | 80 | 1011.3 |
| 20260509175213 | 60 | 238 | 1.7 | 5.2 | 0.00 | 0.00 | 0.00 | 80 | 1011.3 |
| 20260509174957 | 60 | 246 | 0.9 | 5.2 | 0.00 | 0.00 | 0.00 | 80 | 1011.2 |
| 20260509174911 | 60 | 253 | 0.9 | 5.2 | 0.00 | 0.00 | 0.00 | 80 | 1011.2 |
| 20260509174656 | 60 | 284 | 0.9 | 5.2 | 0.00 | 0.00 | 0.00 | 80 | 1011.3 |
| 20260509174556 | 60 | 252 | 0.9 | 4.3 | 0.00 | 0.00 | 0.00 | 81 | 1011.2 |
| 20260509174458 | 60 | 233 | 0.0 | 2.6 | 0.00 | 0.00 | 0.00 | 81 | 1011.3 |
| 20260509174357 | 61 | 232 | 0.0 | 1.7 | 0.00 | 0.00 | 0.00 | 80 | 1011.2 |
| 20260509174312 | 61 | 232 | 0.9 | 1.7 | 0.00 | 0.00 | 0.00 | 81 | 1011.2 |
| 20260509174056 | 61 | 230 | 0.9 | 3.5 | 0.00 | 0.00 | 0.00 | 80 | 1011.2 |
| 20260509173957 | 61 | 231 | 0.9 | 3.5 | 0.00 | 0.00 | 0.00 | 80 | 1011.1 |
| 20260509173912 | 61 | 231 | 0.9 | 3.5 | 0.00 | 0.00 | 0.00 | 80 | 1011.1 |
| 20260509173658 | 61 | 231 | 0.9 | 3.5 | 0.00 | 0.00 | 0.00 | 79 | 1011.2 |
| 20260509173557 | 61 | 231 | 0.9 | 3.5 | 0.00 | 0.00 | 0.00 | 79 | 1011.2 |
| 20260509173455 | 61 | 231 | 1.7 | 3.5 | 0.00 | 0.00 | 0.00 | 79 | 1011.1 |
| 20260509173355 | 61 | 229 | 1.7 | 3.5 | 0.00 | 0.00 | 0.00 | 78 | 1011.1 |
| 20260509173310 | 62 | 229 | 1.7 | 6.1 | 0.00 | 0.00 | 0.00 | 78 | 1011.1 |
| 20260509173054 | 62 | 240 | 1.7 | 7.0 | 0.00 | 0.00 | 0.00 | 79 | 1011.0 |
| 20260509172954 | 62 | 237 | 1.7 | 7.0 | 0.00 | 0.00 | 0.00 | 79 | 1011.0 |
| 20260509172855 | 62 | 237 | 1.7 | 7.0 | 0.00 | 0.00 | 0.00 | 77 | 1010.9 |
| 20260509172754 | 62 | 237 | 1.7 | 7.0 | 0.00 | 0.00 | 0.00 | 78 | 1010.9 |
| 20260509172709 | 62 | 237 | 1.7 | 7.0 | 0.00 | 0.00 | 0.00 | 78 | 1010.9 |
| 20260509172456 | 62 | 257 | 2.6 | 9.6 | 0.00 | 0.00 | 0.00 | 77 | 1010.8 |
| 20260509172410 | 62 | 256 | 2.6 | 9.6 | 0.00 | 0.00 | 0.00 | 76 | 1010.9 |
| 20260509172154 | 62 | 246 | 2.6 | 9.6 | 0.00 | 0.00 | 0.00 | 76 | 1010.8 |
| 20260509172053 | 62 | 248 | 2.6 | 9.6 | 0.00 | 0.00 | 0.00 | 76 | 1010.8 |
| 20260509171954 | 62 | 270 | 2.6 | 9.6 | 0.00 | 0.00 | 0.00 | 76 | 1010.8 |
| 20260509171855 | 62 | 254 | 2.6 | 9.6 | 0.00 | 0.00 | 0.00 | 76 | 1010.8 |
| 20260509171755 | 63 | 266 | 2.6 | 9.6 | 0.00 | 0.00 | 0.00 | 74 | 1010.8 |
| 20260509171710 | 63 | 271 | 1.7 | 9.6 | 0.00 | 0.00 | 0.00 | 74 | 1010.7 |
| 20260509171453 | 63 | 250 | 1.7 | 8.7 | 0.00 | 0.00 | 0.00 | 74 | 1010.8 |
| 20260509171410 | 63 | 244 | 1.7 | 5.2 | 0.00 | 0.00 | 0.00 | 74 | 1010.8 |
| 20260509171154 | 63 | 236 | 0.9 | 5.2 | 0.00 | 0.00 | 0.00 | 76 | 1010.7 |
| 20260509171053 | 63 | 245 | 0.9 | 4.3 | 0.00 | 0.00 | 0.00 | 75 | 1010.7 |
| 20260509171010 | 63 | 245 | 0.9 | 4.3 | 0.00 | 0.00 | 0.00 | 74 | 1010.7 |
| 20260509170755 | 63 | 248 | 0.9 | 2.6 | 0.00 | 0.00 | 0.00 | 74 | 1010.7 |
| 20260509170654 | 62 | 248 | 0.9 | 2.6 | 0.00 | 0.00 | 0.00 | 75 | 1010.7 |
| 20260509170554 | 62 | 248 | 0.9 | 2.6 | 0.00 | 0.00 | 0.00 | 76 | 1010.7 |
| 20260509170510 | 62 | 248 | 0.9 | 6.1 | 0.00 | 0.00 | 0.00 | 77 | 1010.6 |
| 20260509170254 | 62 | 248 | 0.9 | 6.1 | 0.00 | 0.00 | 0.00 | 76 | 1010.7 |
| 20260509170154 | 62 | 252 | 0.9 | 6.1 | 0.00 | 0.00 | 0.00 | 77 | 1010.7 |
| 20260509170054 | 62 | 252 | 0.9 | 6.1 | 0.00 | 0.00 | 0.00 | 76 | 1010.7 |
| 20260509165955 | 62 | 252 | 0.9 | 6.1 | 0.00 | 0.00 | 0.00 | 75 | 1010.7 |
| 20260509165853 | 62 | 252 | 0.9 | 6.1 | 0.00 | 0.00 | 0.00 | 75 | 1010.7 |
| 20260509165754 | 61 | 252 | 0.9 | 6.1 | 0.00 | 0.00 | 0.00 | 75 | 1010.7 |
| 20260509165655 | 61 | 252 | 0.9 | 6.1 | 0.00 | 0.00 | 0.00 | 75 | 1010.8 |
| 20260509165611 | 62 | 252 | 0.9 | 6.1 | 0.00 | 0.00 | 0.00 | 75 | 1010.8 |
| 20260509165354 | 62 | 250 | 0.9 | 2.6 | 0.00 | 0.00 | 0.00 | 75 | 1010.8 |
| 20260509165255 | 61 | 250 | 0.9 | 2.6 | 0.00 | 0.00 | 0.00 | 75 | 1010.8 |
| 20260509165155 | 62 | 250 | 0.9 | 2.6 | 0.00 | 0.00 | 0.00 | 74 | 1010.8 |
| 20260509165110 | 62 | 250 | 0.9 | 2.6 | 0.00 | 0.00 | 0.00 | 74 | 1010.8 |
| 20260509164856 | 62 | 251 | 0.9 | 2.6 | 0.00 | 0.00 | 0.00 | 74 | 1010.8 |
| 20260509164754 | 62 | 252 | 0.9 | 1.7 | 0.00 | 0.00 | 0.00 | 74 | 1010.8 |
| 20260509164654 | 62 | 252 | 0.9 | 3.5 | 0.00 | 0.00 | 0.00 | 74 | 1010.8 |
| 20260509164553 | 62 | 252 | 0.9 | 3.5 | 0.00 | 0.00 | 0.00 | 74 | 1010.8 |
| 20260509164454 | 62 | 252 | 0.9 | 6.1 | 0.00 | 0.00 | 0.00 | 74 | 1010.8 |
| 20260509164353 | 62 | 252 | 0.9 | 6.1 | 0.00 | 0.00 | 0.00 | 74 | 1010.8 |
| 20260509164255 | 62 | 252 | 0.9 | 6.1 | 0.00 | 0.00 | 0.00 | 74 | 1010.8 |
| 20260509164153 | 62 | 252 | 0.9 | 6.1 | 0.00 | 0.00 | 0.00 | 74 | 1010.8 |
| 20260509164112 | 62 | 252 | 0.9 | 6.1 | 0.00 | 0.00 | 0.00 | 74 | 1010.8 |
| 20260509163853 | 62 | 252 | 0.9 | 6.1 | 0.00 | 0.00 | 0.00 | 74 | 1010.8 |
| 20260509163755 | 62 | 252 | 0.9 | 6.1 | 0.00 | 0.00 | 0.00 | 74 | 1010.8 |
| 20260509163654 | 62 | 254 | 0.9 | 6.1 | 0.00 | 0.00 | 0.00 | 74 | 1010.8 |
| 20260509163554 | 62 | 254 | 0.9 | 6.1 | 0.00 | 0.00 | 0.00 | 74 | 1010.8 |
| 20260509163510 | 62 | 252 | 0.9 | 6.1 | 0.00 | 0.00 | 0.00 | 74 | 1010.9 |
| 20260509163255 | 62 | 246 | 0.9 | 6.1 | 0.00 | 0.00 | 0.00 | 73 | 1010.9 |
| 20260509163225 | 62 | 246 | 0.9 | 6.1 | 0.00 | 0.00 | 0.00 | 73 | 1010.9 |
| 20260509162855 | 62 | 237 | 0.9 | 6.1 | 0.00 | 0.00 | 0.00 | 73 | 1010.9 |
| 20260509162753 | 62 | 240 | 0.9 | 6.1 | 0.00 | 0.00 | 0.00 | 73 | 1010.9 |
| 20260509162651 | 62 | 243 | 0.9 | 6.1 | 0.00 | 0.00 | 0.00 | 74 | 1011.0 |
| 20260509162551 | 62 | 243 | 0.9 | 6.1 | 0.00 | 0.00 | 0.00 | 73 | 1011.0 |
| 20260509162511 | 62 | 243 | 0.9 | 6.1 | 0.00 | 0.00 | 0.00 | 74 | 1011.0 |
| 20260509162252 | 62 | 242 | 0.9 | 6.1 | 0.00 | 0.00 | 0.00 | 74 | 1011.0 |
| 20260509162150 | 62 | 242 | 0.9 | 6.1 | 0.00 | 0.00 | 0.00 | 75 | 1011.1 |
| 20260509162103 | 62 | 242 | 0.9 | 6.1 | 0.00 | 0.00 | 0.00 | 74 | 1011.1 |
| 20260509161848 | 62 | 111 | 0.0 | 6.1 | 0.00 | 0.00 | 0.00 | 75 | 1011.1 |
| 20260509161747 | 62 | 111 | 0.0 | 6.1 | 0.00 | 0.00 | 0.00 | 75 | 1011.1 |
| 20260509161646 | 62 | 111 | 0.0 | 6.1 | 0.00 | 0.00 | 0.00 | 75 | 1011.1 |
| 20260509161544 | 62 | 111 | 0.0 | 6.1 | 0.00 | 0.00 | 0.00 | 75 | 1011.1 |
| 20260509161445 | 62 | 217 | 0.9 | 3.5 | 0.00 | 0.00 | 0.00 | 75 | 1011.1 |
| 20260509161344 | 62 | 217 | 0.9 | 3.5 | 0.00 | 0.00 | 0.00 | 75 | 1011.1 |
| 20260509161243 | 62 | 217 | 0.9 | 3.5 | 0.00 | 0.00 | 0.00 | 74 | 1011.2 |
| 20260509161141 | 62 | 217 | 0.9 | 3.5 | 0.00 | 0.00 | 0.00 | 75 | 1011.2 |
| 20260509161041 | 62 | 217 | 0.9 | 3.5 | 0.00 | 0.00 | 0.00 | 75 | 1011.2 |
| 20260509160939 | 62 | 217 | 0.9 | 3.5 | 0.00 | 0.00 | 0.00 | 75 | 1011.3 |
| 20260509160854 | 62 | 217 | 0.9 | 3.5 | 0.00 | 0.00 | 0.00 | 74 | 1011.3 |
| 20260509160639 | 62 | 217 | 0.9 | 3.5 | 0.00 | 0.00 | 0.00 | 74 | 1011.4 |
| 20260509160539 | 62 | 215 | 0.9 | 3.5 | 0.00 | 0.00 | 0.00 | 74 | 1011.4 |
| 20260509160437 | 62 | 213 | 0.9 | 6.1 | 0.00 | 0.00 | 0.00 | 74 | 1011.4 |
| 20260509160336 | 62 | 212 | 0.9 | 6.1 | 0.00 | 0.00 | 0.00 | 74 | 1011.4 |
| 20260509160238 | 62 | 269 | 0.9 | 6.1 | 0.00 | 0.00 | 0.00 | 75 | 1011.3 |
| 20260509160136 | 62 | 269 | 0.9 | 6.1 | 0.00 | 0.00 | 0.00 | 75 | 1011.3 |
| 20260509160036 | 62 | 269 | 0.9 | 6.1 | 0.00 | 0.00 | 0.00 | 75 | 1011.3 |
| 20260509155934 | 62 | 269 | 0.9 | 6.1 | 0.00 | 0.00 | 0.00 | 75 | 1011.2 |
| 20260509155834 | 62 | 269 | 0.9 | 6.1 | 0.00 | 0.00 | 0.00 | 75 | 1011.1 |
| 20260509155732 | 62 | 269 | 0.9 | 6.1 | 0.00 | 0.00 | 0.00 | 75 | 1011.1 |
| 20260509155632 | 62 | 267 | 0.9 | 6.1 | 0.00 | 0.00 | 0.00 | 74 | 1011.1 |
| 20260509155546 | 62 | 267 | 0.9 | 6.1 | 0.00 | 0.00 | 0.00 | 74 | 1011.2 |
| 20260509155330 | 62 | 112 | 0.9 | 4.3 | 0.00 | 0.00 | 0.00 | 76 | 1011.2 |
| 20260509155228 | 62 | 112 | 0.9 | 4.3 | 0.00 | 0.00 | 0.00 | 75 | 1011.2 |
| 20260509155129 | 62 | 112 | 0.9 | 6.1 | 0.00 | 0.00 | 0.00 | 76 | 1011.2 |
| 20260509155027 | 62 | 112 | 1.7 | 6.1 | 0.00 | 0.00 | 0.00 | 76 | 1011.3 |
| 20260509154927 | 62 | 112 | 1.7 | 6.1 | 0.00 | 0.00 | 0.00 | 76 | 1011.4 |
| 20260509154826 | 62 | 112 | 1.7 | 6.1 | 0.00 | 0.00 | 0.00 | 75 | 1011.4 |
| 20260509154724 | 62 | 112 | 1.7 | 6.1 | 0.00 | 0.00 | 0.00 | 75 | 1011.4 |
| 20260509154623 | 62 | 244 | 1.7 | 6.1 | 0.00 | 0.00 | 0.00 | 74 | 1011.4 |
| 20260509154523 | 62 | 244 | 1.7 | 6.1 | 0.00 | 0.00 | 0.00 | 74 | 1011.4 |
| 20260509154421 | 62 | 227 | 1.7 | 6.1 | 0.00 | 0.00 | 0.00 | 74 | 1011.5 |
| 20260509154321 | 62 | 240 | 1.7 | 6.1 | 0.00 | 0.00 | 0.00 | 74 | 1011.6 |
| 20260509154235 | 62 | 236 | 1.7 | 6.1 | 0.00 | 0.00 | 0.00 | 74 | 1011.6 |
| 20260509154019 | 62 | 247 | 1.7 | 6.1 | 0.00 | 0.00 | 0.00 | 75 | 1011.6 |
| 20260509153921 | 62 | 245 | 1.7 | 6.1 | 0.00 | 0.00 | 0.00 | 75 | 1011.6 |
| 20260509153818 | 62 | 241 | 1.7 | 6.1 | 0.00 | 0.00 | 0.00 | 75 | 1011.5 |
| 20260509153719 | 62 | 241 | 0.9 | 6.1 | 0.00 | 0.00 | 0.00 | 75 | 1011.4 |
| 20260509153618 | 62 | 240 | 1.7 | 6.1 | 0.00 | 0.00 | 0.00 | 75 | 1011.3 |